N8MS Weather Reports


Display with metric or nautical units.
time (UTC)temp
F
wind
direction
speed
MPH
gust
MPH
rain 1hr
in
rain 24hr
in
rain mn
in
humidity
%
barometer
mb
20240613235924 76 146 1.0 5.0 0.00 0.00 0.00 84 1011.0
20240613235751 76 165 1.0 5.0 0.00 0.00 0.00 84 1011.0
20240613235702 76 158 1.0 5.0 0.00 0.00 0.00 84 1011.1
20240613235613 76 146 2.0 5.0 0.00 0.00 0.00 84 1011.1
20240613235523 76 246 2.0 5.0 0.00 0.00 0.00 84 1011.0
20240613235412 76 157 1.0 5.0 0.00 0.00 0.00 84 1011.0
20240613235321 76 205 1.0 5.0 0.00 0.00 0.00 84 1011.0
20240613235214 76 214 1.0 5.0 0.00 0.00 0.00 84 1011.0
20240613235124 76 168 1.0 5.0 0.00 0.00 0.00 84 1011.1
20240613235012 76 168 2.0 5.0 0.00 0.00 0.00 84 1011.1
20240613234902 76 153 2.0 5.0 0.00 0.00 0.00 84 1011.1
20240613234811 76 194 1.0 3.0 0.00 0.00 0.00 85 1011.0
20240613234712 76 190 1.0 3.0 0.00 0.00 0.00 85 1011.0
20240613234540 76 202 1.0 7.0 0.00 0.00 0.00 85 1011.0
20240613234429 76 200 1.0 7.0 0.00 0.00 0.00 85 1011.0
20240613234319 76 162 1.0 7.0 0.00 0.00 0.00 85 1011.0
20240613234229 76 113 1.0 7.0 0.00 0.00 0.00 85 1011.0
20240613234119 75 111 1.0 7.0 0.00 0.00 0.00 85 1011.0
20240613234032 75 111 1.0 7.0 0.00 0.00 0.00 85 1011.1
20240613233923 75 236 2.0 7.0 0.00 0.00 0.00 85 1011.1
20240613233834 75 252 2.0 7.0 0.00 0.00 0.00 85 1011.1
20240613233746 75 266 2.0 7.0 0.00 0.00 0.00 85 1011.1
20240613233635 75 167 1.0 6.0 0.00 0.00 0.00 85 1011.1
20240613233546 75 275 2.0 6.0 0.00 0.00 0.00 85 1011.1
20240613233458 75 289 2.0 6.0 0.00 0.00 0.00 86 1011.1
20240613233345 75 205 2.0 6.0 0.00 0.00 0.00 85 1011.1
20240613233255 75 155 2.0 6.0 0.00 0.00 0.00 86 1011.0
20240613233155 75 222 1.0 9.0 0.00 0.00 0.00 86 1011.0
20240613233023 75 245 2.0 9.0 0.00 0.00 0.00 86 1011.1
20240613232919 75 215 2.0 9.0 0.00 0.00 0.00 86 1011.1
20240613232829 75 240 2.0 9.0 0.00 0.00 0.00 86 1011.1
20240613232739 75 232 3.0 9.0 0.00 0.00 0.00 86 1011.1
20240613232626 75 251 3.0 9.0 0.00 0.00 0.00 86 1011.1
20240613232536 75 185 4.0 9.0 0.00 0.00 0.00 86 1011.1
20240613232445 75 118 3.0 9.0 0.00 0.00 0.00 86 1011.0
20240613232356 75 312 3.0 9.0 0.00 0.00 0.00 86 1011.0
20240613232306 75 101 3.0 9.0 0.00 0.00 0.00 85 1010.9
20240613232133 75 242 2.0 9.0 0.00 0.00 0.00 86 1010.9
20240613232023 75 308 2.0 9.0 0.00 0.00 0.00 86 1010.9
20240613231917 74 254 3.0 9.0 0.00 0.00 0.00 85 1010.8
20240613231806 74 148 4.0 9.0 0.00 0.00 0.00 85 1010.8
20240613231705 74 142 5.0 9.0 0.00 0.00 0.00 85 1010.8
20240613231553 74 113 5.0 9.0 0.00 0.00 0.00 85 1010.8
20240613231421 74 159 4.0 9.0 0.00 0.00 0.00 85 1010.8
20240613231331 74 142 3.0 8.0 0.00 0.00 0.00 85 1010.9
20240613231240 74 126 4.0 8.0 0.00 0.00 0.00 85 1010.9
20240613231129 74 277 4.0 8.0 0.00 0.00 0.00 85 1010.9
20240613231020 74 160 4.0 9.0 0.00 0.00 0.00 85 1010.9
20240613230930 74 191 3.0 9.0 0.00 0.00 0.00 85 1011.0
20240613230825 74 150 2.0 9.0 0.00 0.00 0.00 85 1011.1
20240613230735 74 277 4.0 9.0 0.00 0.00 0.00 85 1011.1
20240613230645 74 273 4.0 9.0 0.00 0.00 0.00 85 1011.1
20240613230534 74 156 3.0 9.0 0.00 0.00 0.00 85 1011.1
20240613230444 74 124 3.0 9.0 0.00 0.00 0.00 85 1011.1
20240613230333 74 247 3.0 9.0 0.00 0.00 0.00 85 1011.1
20240613230245 74 160 4.0 9.0 0.00 0.00 0.00 85 1011.1
20240613230146 74 141 4.0 9.0 0.00 0.00 0.00 85 1011.0
20240613230013 74 142 4.0 12.0 0.00 0.00 0.00 85 1011.1
20240613225924 74 53 4.0 12.0 0.00 0.00 0.00 85 1011.1
20240613225834 74 201 4.0 12.0 0.00 0.00 0.00 85 1011.1
20240613225744 74 229 4.0 12.0 0.00 0.00 0.00 84 1011.1
20240613225658 74 261 5.0 12.0 0.00 0.00 0.00 84 1011.1
20240613225546 74 205 4.0 12.0 0.00 0.00 0.00 85 1011.1
20240613225456 74 145 4.0 12.0 0.00 0.00 0.00 85 1011.0
20240613225345 74 238 6.0 12.0 0.00 0.00 0.00 85 1011.0
20240613225253 74 132 6.0 12.0 0.00 0.00 0.00 85 1011.0
20240613225142 74 167 4.0 10.0 0.00 0.00 0.00 85 1011.1
20240613225053 74 175 4.0 10.0 0.00 0.00 0.00 86 1011.1
20240613224941 74 156 4.0 10.0 0.00 0.00 0.00 87 1011.1
20240613224851 74 161 4.0 10.0 0.00 0.00 0.00 87 1011.1
20240613224740 74 159 4.0 11.0 0.00 0.00 0.00 87 1011.1
20240613224640 74 163 2.0 7.0 0.00 0.00 0.00 87 1011.3
20240613224529 73 240 3.0 7.0 0.00 0.00 0.00 87 1011.4
20240613224423 73 146 2.0 7.0 0.00 0.00 0.00 87 1011.4
20240613224334 73 107 3.0 7.0 0.00 0.00 0.00 87 1011.6
20240613224244 73 270 3.0 7.0 0.00 0.00 0.00 87 1011.6
20240613224154 73 177 2.0 7.0 0.00 0.00 0.00 87 1011.6
20240613224103 73 188 2.0 7.0 0.00 0.00 0.00 87 1011.4
20240613223931 73 161 2.0 7.0 0.00 0.00 0.00 87 1011.5
20240613223842 73 236 2.0 7.0 0.00 0.00 0.00 87 1011.4
20240613223731 73 246 2.0 7.0 0.00 0.00 0.00 87 1011.4
20240613223641 73 250 3.0 7.0 0.00 0.00 0.00 87 1011.4
20240613223531 73 92 3.0 7.0 0.00 0.00 0.00 87 1011.5
20240613223419 73 205 2.0 7.0 0.00 0.00 0.00 87 1011.7
20240613223329 73 130 3.0 7.0 0.00 0.00 0.00 87 1011.7
20240613223221 74 127 2.0 7.0 0.00 0.00 0.00 87 1011.7
20240613223144 74 140 2.0 7.0 0.00 0.00 0.00 88 1011.7
20240613223031 74 152 2.0 7.0 0.00 0.00 0.00 87 1011.8
20240613222942 74 233 2.0 7.0 0.00 0.00 0.00 87 1011.9
20240613222832 74 220 3.0 7.0 0.00 0.00 0.00 87 1011.8
20240613222722 74 232 2.0 7.0 0.00 0.00 0.00 88 1011.7
20240613222633 74 219 1.0 5.0 0.00 0.00 0.00 88 1011.8
20240613222524 74 220 1.0 7.0 0.00 0.00 0.00 88 1011.7
20240613222435 74 275 1.0 7.0 0.00 0.00 0.00 88 1011.7
20240613222345 74 189 1.0 7.0 0.00 0.00 0.00 88 1011.6
20240613222237 74 213 1.0 7.0 0.00 0.00 0.00 88 1011.6
20240613222147 74 154 2.0 7.0 0.00 0.00 0.00 88 1011.7
20240613222058 74 147 2.0 7.0 0.00 0.00 0.00 88 1011.6
20240613222009 74 143 2.0 7.0 0.00 0.00 0.00 88 1011.6
20240613221900 74 165 3.0 7.0 0.00 0.00 0.00 88 1011.5
20240613221810 74 201 3.0 7.0 0.00 0.00 0.00 88 1011.7
20240613221710 74 157 3.0 7.0 0.00 0.00 0.00 88 1011.5
20240613221600 74 57 2.0 6.0 0.00 0.00 0.00 88 1011.5
20240613221509 74 164 2.0 6.0 0.00 0.00 0.00 88 1011.6
20240613221357 74 196 2.0 6.0 0.00 0.00 0.00 88 1011.6
20240613221246 74 150 2.0 6.0 0.00 0.00 0.00 88 1011.7
20240613221134 74 142 1.0 5.0 0.00 0.00 0.00 88 1011.6
20240613221045 74 246 2.0 5.0 0.00 0.00 0.00 88 1011.7
20240613220918 74 197 2.0 5.0 0.00 0.00 0.00 88 1011.7
20240613220828 74 145 2.0 4.0 0.00 0.00 0.00 87 1011.7
20240613220717 74 136 2.0 4.0 0.00 0.00 0.00 87 1011.8
20240613220629 74 225 2.0 4.0 0.00 0.00 0.00 87 1011.8
20240613220517 74 146 2.0 5.0 0.00 0.00 0.00 87 1011.7
20240613220427 74 148 1.0 5.0 0.00 0.00 0.00 86 1011.8
20240613220316 75 249 1.0 5.0 0.00 0.00 0.00 86 1011.8
20240613220155 75 142 1.0 5.0 0.00 0.00 0.00 86 1011.8
20240613220042 75 195 1.0 6.0 0.00 0.00 0.00 85 1011.8
20240613215953 75 219 1.0 6.0 0.00 0.00 0.00 85 1011.8
20240613215839 75 160 2.0 6.0 0.00 0.00 0.00 84 1011.8
20240613215733 75 229 3.0 6.0 0.00 0.00 0.00 84 1011.8
20240613215621 75 140 2.0 7.0 0.00 0.00 0.00 84 1011.7
20240613215532 75 140 2.0 7.0 0.00 0.00 0.00 83 1011.8
20240613215421 76 5 2.0 9.0 0.00 0.00 0.00 83 1011.8
20240613215331 76 246 3.0 11.0 0.00 0.00 0.00 82 1011.9
20240613215242 76 244 3.0 10.0 0.00 0.00 0.00 81 1011.9
20240613215131 76 244 3.0 10.0 0.00 0.00 0.00 80 1012.0
20240613215018 76 239 4.0 10.0 0.00 0.00 0.00 80 1012.0
20240613214929 77 234 4.0 10.0 0.00 0.00 0.00 79 1011.9
20240613214838 77 238 4.0 10.0 0.00 0.00 0.00 79 1011.9
20240613214748 77 257 5.0 10.0 0.00 0.00 0.00 78 1012.0
20240613214649 77 311 6.0 10.0 0.00 0.00 0.00 77 1012.0
20240613214541 77 229 7.0 10.0 0.00 0.00 0.00 76 1011.9
20240613214429 78 252 5.0 11.0 0.00 0.00 0.00 76 1012.0
20240613214321 78 206 4.0 7.0 0.00 0.00 0.00 76 1011.9
20240613214230 78 248 3.0 6.0 0.00 0.00 0.00 76 1011.8
20240613214119 78 249 3.0 6.0 0.00 0.00 0.00 75 1011.7
20240613214029 78 249 2.0 12.0 0.00 0.00 0.00 75 1011.6
20240613213918 78 233 1.0 12.0 0.00 0.00 0.00 75 1011.4
20240613213829 78 233 2.0 12.0 0.00 0.00 0.00 75 1011.5
20240613213720 78 233 3.0 12.0 0.00 0.00 0.00 75 1011.3
20240613213633 78 277 3.0 12.0 0.00 0.00 0.00 75 1011.3
20240613213522 78 254 2.0 12.0 0.00 0.00 0.00 76 1011.4
20240613213413 78 264 3.0 12.0 0.00 0.00 0.00 75 1011.4
20240613213324 78 338 4.0 12.0 0.00 0.00 0.00 75 1011.3
20240613213235 78 239 3.0 12.0 0.00 0.00 0.00 76 1011.3
20240613213157 78 271 3.0 6.0 0.00 0.00 0.00 76 1011.3
20240613213045 78 259 3.0 6.0 0.00 0.00 0.00 76 1011.2
20240613212956 78 231 3.0 7.0 0.00 0.00 0.00 76 1011.1
20240613212905 78 234 3.0 7.0 0.00 0.00 0.00 76 1011.0
20240613212755 78 255 3.0 7.0 0.00 0.00 0.00 76 1011.0
20240613212704 78 252 3.0 7.0 0.00 0.00 0.00 76 1010.9
20240613212613 78 272 2.0 8.0 0.00 0.00 0.00 76 1010.9
20240613212502 78 291 2.0 8.0 0.00 0.00 0.00 76 1010.8
20240613212351 78 306 3.0 8.0 0.00 0.00 0.00 75 1010.6
20240613212240 78 257 4.0 10.0 0.00 0.00 0.00 75 1010.7
20240613212129 78 291 4.0 11.0 0.00 0.00 0.00 74 1010.6
20240613212019 78 260 4.0 11.0 0.00 0.00 0.00 74 1010.5
20240613211929 79 274 3.0 11.0 0.00 0.00 0.00 74 1010.5
20240613211818 79 253 4.0 17.0 0.00 0.00 0.00 73 1010.6
20240613211729 79 286 4.0 22.0 0.00 0.00 0.00 72 1010.7
20240613211651 79 265 4.0 22.0 0.00 0.00 0.00 72 1010.7
20240613211518 80 269 4.0 22.0 0.00 0.00 0.00 72 1010.7
20240613211429 80 288 5.0 22.0 0.00 0.00 0.00 71 1010.8
20240613211339 80 290 6.0 22.0 0.00 0.00 0.00 70 1010.8
20240613211231 81 236 7.0 22.0 0.00 0.00 0.00 70 1010.9
20240613211122 82 250 9.0 22.0 0.00 0.00 0.00 69 1010.9
20240613211033 82 209 9.0 22.0 0.00 0.00 0.00 68 1010.8
20240613210942 83 260 6.0 20.0 0.00 0.00 0.00 67 1010.7
20240613210832 83 248 6.0 10.0 0.00 0.00 0.00 66 1010.6
20240613210722 83 245 6.0 9.0 0.00 0.00 0.00 67 1010.5
20240613210632 83 214 5.0 10.0 0.00 0.00 0.00 66 1010.4
20240613210521 83 279 4.0 10.0 0.00 0.00 0.00 66 1010.4
20240613210430 83 276 5.0 9.0 0.00 0.00 0.00 66 1010.3
20240613210340 83 270 5.0 9.0 0.00 0.00 0.00 65 1010.3
20240613210252 83 271 3.0 9.0 0.00 0.00 0.00 65 1010.5
20240613210155 83 279 3.0 9.0 0.00 0.00 0.00 66 1010.5
20240613210022 83 273 3.0 9.0 0.00 0.00 0.00 65 1010.5
20240613205932 83 269 4.0 9.0 0.00 0.00 0.00 65 1010.6
20240613205822 83 283 5.0 9.0 0.00 0.00 0.00 65 1010.5
20240613205732 83 269 4.0 9.0 0.00 0.00 0.00 65 1010.5
20240613205623 83 262 4.0 12.0 0.00 0.00 0.00 65 1010.4
20240613205532 83 300 4.0 12.0 0.00 0.00 0.00 65 1010.5
20240613205442 83 317 3.0 12.0 0.00 0.00 0.00 65 1010.5
20240613205350 84 307 3.0 12.0 0.00 0.00 0.00 64 1010.5
20240613205300 84 311 3.0 12.0 0.00 0.00 0.00 64 1010.6
20240613205154 84 306 4.0 12.0 0.00 0.00 0.00 64 1010.6
20240613205044 84 277 6.0 12.0 0.00 0.00 0.00 63 1010.5
20240613204953 84 287 6.0 12.0 0.00 0.00 0.00 63 1010.6
20240613204900 84 293 6.0 12.0 0.00 0.00 0.00 63 1010.5
20240613204749 84 239 6.0 12.0 0.00 0.00 0.00 63 1010.5
20240613204649 84 301 6.0 12.0 0.00 0.00 0.00 63 1010.5
20240613204518 84 311 6.0 12.0 0.00 0.00 0.00 63 1010.4
20240613204427 84 317 7.0 12.0 0.00 0.00 0.00 63 1010.5
20240613204338 84 300 7.0 12.0 0.00 0.00 0.00 63 1010.5
20240613204227 84 302 5.0 10.0 0.00 0.00 0.00 64 1010.4
20240613204117 83 272 5.0 10.0 0.00 0.00 0.00 63 1010.4
20240613204031 83 300 5.0 10.0 0.00 0.00 0.00 64 1010.5
20240613203940 83 313 4.0 10.0 0.00 0.00 0.00 64 1010.5
20240613203829 83 315 4.0 10.0 0.00 0.00 0.00 65 1010.5
20240613203739 83 236 4.0 10.0 0.00 0.00 0.00 64 1010.5
20240613203627 83 277 3.0 10.0 0.00 0.00 0.00 64 1010.7
20240613203538 83 250 3.0 10.0 0.00 0.00 0.00 64 1010.7
20240613203427 83 264 5.0 10.0 0.00 0.00 0.00 63 1010.6
20240613203316 83 306 5.0 10.0 0.00 0.00 0.00 64 1010.7
20240613203226 84 254 5.0 10.0 0.00 0.00 0.00 64 1010.8
20240613203149 84 298 6.0 10.0 0.00 0.00 0.00 64 1010.8
20240613203016 84 261 4.0 10.0 0.00 0.00 0.00 64 1010.8
20240613202931 84 302 3.0 10.0 0.00 0.00 0.00 64 1010.9
20240613202841 84 5 4.0 10.0 0.00 0.00 0.00 64 1010.9
20240613202750 84 277 3.0 10.0 0.00 0.00 0.00 64 1011.0
20240613202637 84 270 5.0 10.0 0.00 0.00 0.00 64 1011.0
20240613202527 84 248 6.0 11.0 0.00 0.00 0.00 62 1011.0
20240613202438 84 301 6.0 11.0 0.00 0.00 0.00 62 1011.0
20240613202348 84 322 4.0 13.0 0.00 0.00 0.00 62 1010.9
20240613202218 84 281 3.0 13.0 0.00 0.00 0.00 62 1010.9
20240613202130 84 294 4.0 13.0 0.00 0.00 0.00 62 1010.9
20240613202019 84 298 5.0 13.0 0.00 0.00 0.00 61 1011.0
20240613201929 85 262 5.0 14.0 0.00 0.00 0.00 61 1011.0
20240613201756 85 291 5.0 14.0 0.00 0.00 0.00 62 1011.0
20240613201700 85 240 5.0 14.0 0.00 0.00 0.00 61 1011.0
20240613201549 85 279 5.0 14.0 0.00 0.00 0.00 62 1011.0
20240613201459 85 260 4.0 14.0 0.00 0.00 0.00 62 1011.1
20240613201348 85 222 5.0 14.0 0.00 0.00 0.00 61 1011.1
20240613201235 85 265 6.0 14.0 0.00 0.00 0.00 61 1011.1
20240613201124 85 261 7.0 14.0 0.00 0.00 0.00 61 1011.1
20240613201014 85 313 4.0 14.0 0.00 0.00 0.00 61 1011.2
20240613200924 85 285 3.0 9.0 0.00 0.00 0.00 62 1011.1
20240613200834 85 309 4.0 9.0 0.00 0.00 0.00 62 1011.2
20240613200744 85 236 4.0 9.0 0.00 0.00 0.00 62 1011.2
20240613200654 85 316 2.0 11.0 0.00 0.00 0.00 62 1011.1
20240613200528 86 301 2.0 11.0 0.00 0.00 0.00 63 1011.0
20240613200417 86 273 2.0 11.0 0.00 0.00 0.00 61 1011.1
20240613200327 86 275 2.0 11.0 0.00 0.00 0.00 62 1011.0
20240613200217 86 252 3.0 11.0 0.00 0.00 0.00 61 1011.0
20240613200139 86 242 4.0 11.0 0.00 0.00 0.00 61 1011.0
20240613200026 86 215 5.0 11.0 0.00 0.00 0.00 59 1010.9
20240613195915 86 246 6.0 11.0 0.00 0.00 0.00 60 1010.9
20240613195824 86 257 7.0 11.0 0.00 0.00 0.00 59 1010.9
20240613195732 86 250 6.0 11.0 0.00 0.00 0.00 59 1010.9
20240613195622 86 258 7.0 11.0 0.00 0.00 0.00 60 1010.9
20240613195515 86 269 4.0 11.0 0.00 0.00 0.00 60 1010.9
20240613195427 87 253 3.0 10.0 0.00 0.00 0.00 61 1010.9
20240613195317 87 252 3.0 10.0 0.00 0.00 0.00 60 1010.9
20240613195204 87 255 4.0 10.0 0.00 0.00 0.00 59 1010.9
20240613195053 87 239 4.0 12.0 0.00 0.00 0.00 60 1010.9
20240613194944 87 254 4.0 12.0 0.00 0.00 0.00 60 1010.9
20240613194854 87 246 3.0 12.0 0.00 0.00 0.00 61 1010.9
20240613194742 87 258 4.0 12.0 0.00 0.00 0.00 58 1010.9
20240613194705 87 247 5.0 13.0 0.00 0.00 0.00 58 1010.8
20240613194553 87 209 5.0 13.0 0.00 0.00 0.00 58 1010.8
20240613194441 87 200 5.0 13.0 0.00 0.00 0.00 59 1010.9
20240613194354 87 213 6.0 13.0 0.00 0.00 0.00 58 1010.9
20240613194242 87 242 5.0 13.0 0.00 0.00 0.00 58 1010.9
20240613194153 87 231 4.0 13.0 0.00 0.00 0.00 59 1011.0
20240613194105 87 205 5.0 13.0 0.00 0.00 0.00 58 1010.9
20240613193952 87 227 7.0 13.0 0.00 0.00 0.00 57 1010.9
20240613193840 87 328 5.0 13.0 0.00 0.00 0.00 58 1010.8
20240613193728 87 263 3.0 13.0 0.00 0.00 0.00 58 1010.9
20240613193638 87 286 5.0 13.0 0.00 0.00 0.00 57 1010.9
20240613193526 87 248 7.0 13.0 0.00 0.00 0.00 57 1010.8
20240613193417 88 268 6.0 13.0 0.00 0.00 0.00 57 1010.9
20240613193325 88 249 5.0 10.0 0.00 0.00 0.00 58 1010.9
20240613193210 88 296 5.0 10.0 0.00 0.00 0.00 59 1010.9
20240613193036 88 249 7.0 10.0 0.00 0.00 0.00 57 1010.9
20240613192945 88 278 7.0 11.0 0.00 0.00 0.00 58 1010.9
20240613192831 88 244 6.0 12.0 0.00 0.00 0.00 57 1010.9
20240613192720 88 246 5.0 12.0 0.00 0.00 0.00 60 1011.0
20240613192630 88 251 6.0 12.0 0.00 0.00 0.00 60 1010.9
20240613192541 88 225 6.0 12.0 0.00 0.00 0.00 58 1010.9
20240613192452 87 228 6.0 14.0 0.00 0.00 0.00 60 1010.8
20240613192341 87 252 5.0 14.0 0.00 0.00 0.00 60 1010.9
20240613192252 87 232 5.0 14.0 0.00 0.00 0.00 60 1010.8
20240613192139 87 229 6.0 14.0 0.00 0.00 0.00 60 1010.9
20240613192025 87 296 6.0 14.0 0.00 0.00 0.00 62 1010.9
20240613191918 87 258 5.0 14.0 0.00 0.00 0.00 61 1011.0
20240613191828 87 244 5.0 14.0 0.00 0.00 0.00 59 1010.9
20240613191739 87 240 6.0 14.0 0.00 0.00 0.00 59 1010.9
20240613191637 87 238 5.0 14.0 0.00 0.00 0.00 59 1011.0
20240613191527 87 243 4.0 9.0 0.00 0.00 0.00 60 1010.9
20240613191437 87 236 3.0 8.0 0.00 0.00 0.00 62 1010.9
20240613191326 87 244 4.0 12.0 0.00 0.00 0.00 59 1010.9
20240613191237 87 208 5.0 12.0 0.00 0.00 0.00 58 1010.9
20240613191125 86 251 4.0 12.0 0.00 0.00 0.00 59 1011.0
20240613191016 86 225 4.0 12.0 0.00 0.00 0.00 61 1011.0
20240613190926 86 242 4.0 12.0 0.00 0.00 0.00 62 1011.0
20240613190837 86 246 4.0 12.0 0.00 0.00 0.00 61 1011.0
20240613190748 86 250 4.0 12.0 0.00 0.00 0.00 61 1011.0
20240613190617 86 239 5.0 12.0 0.00 0.00 0.00 60 1011.1
20240613190528 86 242 5.0 12.0 0.00 0.00 0.00 60 1011.1
20240613190418 86 236 4.0 10.0 0.00 0.00 0.00 62 1011.1
20240613190328 86 244 4.0 10.0 0.00 0.00 0.00 63 1011.1
20240613190239 86 227 4.0 10.0 0.00 0.00 0.00 62 1011.1
20240613190140 86 282 4.0 10.0 0.00 0.00 0.00 62 1011.1
20240613190027 86 248 3.0 10.0 0.00 0.00 0.00 63 1011.1
20240613185937 86 244 3.0 10.0 0.00 0.00 0.00 62 1011.1
20240613185849 86 262 4.0 10.0 0.00 0.00 0.00 62 1011.1
20240613185737 86 279 4.0 10.0 0.00 0.00 0.00 61 1011.1
20240613185651 86 259 3.0 10.0 0.00 0.00 0.00 60 1011.2
20240613185541 86 291 5.0 10.0 0.00 0.00 0.00 60 1011.2
20240613185429 86 230 4.0 10.0 0.00 0.00 0.00 59 1011.2
20240613185338 86 259 4.0 10.0 0.00 0.00 0.00 60 1011.2
20240613185248 86 255 5.0 10.0 0.00 0.00 0.00 60 1011.1
20240613185200 86 236 6.0 10.0 0.00 0.00 0.00 60 1011.1
20240613185048 86 240 4.0 9.0 0.00 0.00 0.00 59 1011.2
20240613184959 86 263 2.0 9.0 0.00 0.00 0.00 62 1011.2
20240613184907 86 184 2.0 9.0 0.00 0.00 0.00 62 1011.2
20240613184756 86 254 5.0 9.0 0.00 0.00 0.00 61 1011.2
20240613184716 86 265 6.0 9.0 0.00 0.00 0.00 60 1011.2
20240613184544 86 242 5.0 9.0 0.00 0.00 0.00 62 1011.1
20240613184455 86 216 5.0 10.0 0.00 0.00 0.00 61 1011.2
20240613184408 85 252 4.0 10.0 0.00 0.00 0.00 62 1011.3
20240613184236 85 258 3.0 10.0 0.00 0.00 0.00 63 1011.3
20240613184145 85 250 3.0 13.0 0.00 0.00 0.00 63 1011.3
20240613184056 85 281 4.0 15.0 0.00 0.00 0.00 63 1011.2
20240613183945 85 287 4.0 15.0 0.00 0.00 0.00 62 1011.3
20240613183831 85 275 3.0 15.0 0.00 0.00 0.00 63 1011.3
20240613183722 85 248 4.0 15.0 0.00 0.00 0.00 62 1011.3
20240613183632 85 218 5.0 15.0 0.00 0.00 0.00 61 1011.3
20240613183523 85 260 6.0 15.0 0.00 0.00 0.00 61 1011.2
20240613183432 85 243 7.0 15.0 0.00 0.00 0.00 61 1011.2
20240613183342 85 263 7.0 15.0 0.00 0.00 0.00 60 1011.2
20240613183238 85 268 5.0 15.0 0.00 0.00 0.00 61 1011.2
20240613183135 85 248 5.0 16.0 0.00 0.00 0.00 62 1011.3
20240613183026 85 252 5.0 16.0 0.00 0.00 0.00 60 1011.3
20240613182917 85 226 5.0 16.0 0.00 0.00 0.00 62 1011.4
20240613182826 85 292 6.0 16.0 0.00 0.00 0.00 61 1011.4
20240613182717 85 261 7.0 16.0 0.00 0.00 0.00 60 1011.3
20240613182628 85 254 7.0 16.0 0.00 0.00 0.00 60 1011.4
20240613182537 85 261 8.0 16.0 0.00 0.00 0.00 60 1011.4
20240613182427 85 244 9.0 16.0 0.00 0.00 0.00 59 1011.4
20240613182336 85 240 7.0 15.0 0.00 0.00 0.00 59 1011.4
20240613182247 86 251 7.0 15.0 0.00 0.00 0.00 59 1011.3
20240613182201 86 237 8.0 15.0 0.00 0.00 0.00 58 1011.3
20240613182052 86 240 8.0 15.0 0.00 0.00 0.00 58 1011.4
20240613182003 86 261 5.0 11.0 0.00 0.00 0.00 60 1011.4
20240613181827 86 225 7.0 11.0 0.00 0.00 0.00 59 1011.4
20240613181720 86 217 6.0 11.0 0.00 0.00 0.00 59 1011.3
20240613181641 86 232 5.0 11.0 0.00 0.00 0.00 60 1011.3
20240613181532 86 229 3.0 10.0 0.00 0.00 0.00 63 1011.3
20240613181420 86 227 4.0 10.0 0.00 0.00 0.00 63 1011.3
20240613181248 86 247 4.0 10.0 0.00 0.00 0.00 60 1011.3
20240613181157 86 244 4.0 10.0 0.00 0.00 0.00 60 1011.3
20240613181106 86 268 4.0 10.0 0.00 0.00 0.00 60 1011.2
20240613180952 86 234 3.0 10.0 0.00 0.00 0.00 59 1011.2
20240613180905 86 286 4.0 10.0 0.00 0.00 0.00 59 1011.3
20240613180733 86 225 5.0 10.0 0.00 0.00 0.00 59 1011.2
20240613180642 86 252 4.0 12.0 0.00 0.00 0.00 58 1011.2
20240613180552 86 249 4.0 12.0 0.00 0.00 0.00 58 1011.2
20240613180440 86 80 5.0 12.0 0.00 0.00 0.00 58 1011.2
20240613180349 87 223 6.0 12.0 0.00 0.00 0.00 58 1011.2
20240613180238 87 229 6.0 12.0 0.00 0.00 0.00 59 1011.2
20240613180158 87 208 6.0 12.0 0.00 0.00 0.00 59 1011.2
20240613180044 87 228 3.0 12.0 0.00 0.00 0.00 59 1011.2
20240613175933 87 260 5.0 12.0 0.00 0.00 0.00 61 1011.3
20240613175822 87 232 6.0 12.0 0.00 0.00 0.00 59 1011.3
20240613175729 87 259 4.0 12.0 0.00 0.00 0.00 60 1011.3
20240613175621 87 276 3.0 12.0 0.00 0.00 0.00 58 1011.2
20240613175532 87 248 4.0 12.0 0.00 0.00 0.00 59 1011.3
20240613175420 87 199 6.0 12.0 0.00 0.00 0.00 59 1011.3
20240613175331 87 235 6.0 12.0 0.00 0.00 0.00 59 1011.4
20240613175241 87 226 7.0 12.0 0.00 0.00 0.00 58 1011.4
20240613175151 87 197 7.0 12.0 0.00 0.00 0.00 58 1011.4
20240613175100 87 225 6.0 12.0 0.00 0.00 0.00 59 1011.4
20240613174946 87 223 6.0 12.0 0.00 0.00 0.00 59 1011.3
20240613174857 86 145 6.0 9.0 0.00 0.00 0.00 60 1011.3
20240613174744 86 237 5.0 10.0 0.00 0.00 0.00 62 1011.4
20240613174642 86 232 5.0 9.0 0.00 0.00 0.00 59 1011.1
20240613174531 86 261 5.0 9.0 0.00 0.00 0.00 59 1011.3
20240613174446 86 220 5.0 9.0 0.00 0.00 0.00 61 1011.3
20240613174334 86 242 4.0 9.0 0.00 0.00 0.00 61 1011.3
20240613174222 86 213 5.0 9.0 0.00 0.00 0.00 61 1011.4
20240613174131 86 257 6.0 9.0 0.00 0.00 0.00 62 1011.4
20240613174042 85 250 5.0 9.0 0.00 0.00 0.00 61 1011.4
20240613173952 85 237 4.0 11.0 0.00 0.00 0.00 63 1011.4
20240613173841 85 225 4.0 11.0 0.00 0.00 0.00 62 1011.4
20240613173753 85 244 3.0 11.0 0.00 0.00 0.00 64 1011.4
20240613173704 85 278 4.0 11.0 0.00 0.00 0.00 65 1011.5
20240613173612 85 241 4.0 11.0 0.00 0.00 0.00 63 1011.6
20240613173501 85 269 4.0 11.0 0.00 0.00 0.00 61 1011.6
20240613173330 85 236 5.0 11.0 0.00 0.00 0.00 61 1011.7
20240613173238 85 220 4.0 11.0 0.00 0.00 0.00 62 1011.7
20240613173102 85 221 4.0 11.0 0.00 0.00 0.00 62 1011.7
20240613172927 85 269 5.0 11.0 0.00 0.00 0.00 61 1011.7
20240613172818 85 225 4.0 11.0 0.00 0.00 0.00 61 1011.7
20240613172729 85 254 4.0 15.0 0.00 0.00 0.00 61 1011.8
20240613172620 85 242 4.0 15.0 0.00 0.00 0.00 62 1011.7
20240613172530 85 252 5.0 15.0 0.00 0.00 0.00 61 1011.7
20240613172438 85 221 5.0 15.0 0.00 0.00 0.00 61 1011.7
20240613172348 86 215 5.0 15.0 0.00 0.00 0.00 61 1011.7
20240613172255 86 257 6.0 15.0 0.00 0.00 0.00 61 1011.8
20240613172145 86 269 5.0 15.0 0.00 0.00 0.00 60 1011.8
20240613172037 86 242 6.0 15.0 0.00 0.00 0.00 60 1011.8
20240613171927 86 313 6.0 15.0 0.00 0.00 0.00 59 1011.7
20240613171816 86 192 6.0 12.0 0.00 0.00 0.00 60 1011.8
20240613171716 86 207 6.0 12.0 0.00 0.00 0.00 59 1011.8
20240613171606 86 245 6.0 12.0 0.00 0.00 0.00 60 1011.8
20240613171516 86 232 6.0 12.0 0.00 0.00 0.00 60 1011.8
20240613171405 85 255 5.0 10.0 0.00 0.00 0.00 60 1011.8
20240613171231 85 251 5.0 12.0 0.00 0.00 0.00 61 1011.7
20240613171141 85 228 5.0 12.0 0.00 0.00 0.00 63 1011.7
20240613171047 85 236 5.0 17.0 0.00 0.00 0.00 63 1011.7
20240613170914 85 247 4.0 17.0 0.00 0.00 0.00 64 1011.8
20240613170806 85 238 5.0 17.0 0.00 0.00 0.00 63 1011.7
20240613170715 85 236 6.0 17.0 0.00 0.00 0.00 63 1011.7
20240613170604 85 248 6.0 17.0 0.00 0.00 0.00 62 1011.7
20240613170513 85 259 7.0 17.0 0.00 0.00 0.00 63 1011.7
20240613170402 85 287 8.0 17.0 0.00 0.00 0.00 62 1011.8
20240613170251 85 239 7.0 17.0 0.00 0.00 0.00 62 1011.8
20240613170151 85 250 6.0 16.0 0.00 0.00 0.00 62 1011.8
20240613170038 85 223 7.0 16.0 0.00 0.00 0.00 62 1011.8
20240613165925 85 251 6.0 16.0 0.00 0.00 0.00 63 1011.8
20240613165815 85 219 6.0 16.0 0.00 0.00 0.00 63 1011.8
20240613165725 85 67 6.0 16.0 0.00 0.00 0.00 63 1011.9
20240613165619 85 236 7.0 16.0 0.00 0.00 0.00 62 1011.9
20240613165530 85 215 8.0 16.0 0.00 0.00 0.00 62 1011.9
20240613165420 85 213 7.0 14.0 0.00 0.00 0.00 62 1011.9
20240613165331 85 237 7.0 14.0 0.00 0.00 0.00 62 1011.9
20240613165241 85 169 7.0 14.0 0.00 0.00 0.00 63 1011.9
20240613165130 85 243 6.0 14.0 0.00 0.00 0.00 62 1011.9
20240613165040 85 238 7.0 14.0 0.00 0.00 0.00 62 1011.9
20240613164949 85 234 5.0 14.0 0.00 0.00 0.00 63 1011.9
20240613164901 84 173 5.0 14.0 0.00 0.00 0.00 63 1011.8
20240613164748 84 286 5.0 14.0 0.00 0.00 0.00 62 1011.9
20240613164647 84 268 6.0 14.0 0.00 0.00 0.00 63 1011.9
20240613164520 84 265 6.0 14.0 0.00 0.00 0.00 62 1011.9
20240613164409 84 158 7.0 14.0 0.00 0.00 0.00 62 1012.0
20240613164319 84 236 7.0 14.0 0.00 0.00 0.00 63 1011.9
20240613164206 84 220 6.0 14.0 0.00 0.00 0.00 63 1011.9
20240613164051 84 248 6.0 14.0 0.00 0.00 0.00 63 1011.9
20240613164003 84 250 7.0 14.0 0.00 0.00 0.00 63 1011.8
20240613163851 84 240 7.0 13.0 0.00 0.00 0.00 61 1011.9
20240613163740 84 236 5.0 11.0 0.00 0.00 0.00 62 1012.0
20240613163650 84 234 6.0 11.0 0.00 0.00 0.00 62 1011.9
20240613163538 84 282 6.0 11.0 0.00 0.00 0.00 62 1011.9
20240613163448 84 200 6.0 11.0 0.00 0.00 0.00 62 1011.9
20240613163356 84 270 5.0 11.0 0.00 0.00 0.00 65 1011.8
20240613163306 84 253 5.0 11.0 0.00 0.00 0.00 63 1011.8
20240613163209 84 238 6.0 11.0 0.00 0.00 0.00 63 1011.9
20240613163036 83 234 7.0 12.0 0.00 0.00 0.00 63 1011.8
20240613162947 83 236 7.0 16.0 0.00 0.00 0.00 65 1011.9
20240613162836 83 250 5.0 16.0 0.00 0.00 0.00 65 1011.9
20240613162745 83 234 5.0 16.0 0.00 0.00 0.00 67 1011.9
20240613162630 83 273 5.0 16.0 0.00 0.00 0.00 65 1011.9
20240613162519 83 248 4.0 16.0 0.00 0.00 0.00 66 1011.7
20240613162430 83 241 4.0 16.0 0.00 0.00 0.00 64 1011.7
20240613162340 83 239 6.0 16.0 0.00 0.00 0.00 64 1011.7
20240613162249 83 246 9.0 16.0 0.00 0.00 0.00 64 1011.7
20240613162138 83 225 8.0 16.0 0.00 0.00 0.00 66 1011.7
20240613162049 83 250 7.0 16.0 0.00 0.00 0.00 65 1011.8
20240613162003 83 205 6.0 11.0 0.00 0.00 0.00 65 1011.7
20240613161830 83 241 6.0 11.0 0.00 0.00 0.00 64 1011.8
20240613161740 83 262 6.0 11.0 0.00 0.00 0.00 65 1011.8
20240613161701 83 238 6.0 14.0 0.00 0.00 0.00 65 1011.8
20240613161528 83 283 6.0 14.0 0.00 0.00 0.00 65 1011.9
20240613161437 82 228 6.0 14.0 0.00 0.00 0.00 66 1011.8
20240613161326 82 234 5.0 14.0 0.00 0.00 0.00 66 1011.8
20240613161219 82 241 6.0 14.0 0.00 0.00 0.00 65 1011.8
20240613161128 82 238 7.0 14.0 0.00 0.00 0.00 65 1011.7
20240613161038 82 253 8.0 14.0 0.00 0.00 0.00 65 1011.8
20240613160926 82 239 7.0 14.0 0.00 0.00 0.00 65 1011.8
20240613160836 82 243 6.0 12.0 0.00 0.00 0.00 66 1011.8
20240613160751 82 243 5.0 12.0 0.00 0.00 0.00 66 1011.8
20240613160701 82 250 5.0 18.0 0.00 0.00 0.00 66 1011.8
20240613160610 82 248 5.0 18.0 0.00 0.00 0.00 67 1011.7
20240613160458 82 246 5.0 18.0 0.00 0.00 0.00 66 1011.8
20240613160409 82 226 4.0 18.0 0.00 0.00 0.00 67 1011.7
20240613160258 82 243 5.0 18.0 0.00 0.00 0.00 66 1011.7
20240613160156 82 275 5.0 18.0 0.00 0.00 0.00 67 1011.7
20240613160042 82 246 4.0 18.0 0.00 0.00 0.00 68 1011.8
20240613155951 81 236 5.0 18.0 0.00 0.00 0.00 68 1011.7
20240613155821 81 236 7.0 18.0 0.00 0.00 0.00 69 1011.7
20240613155731 81 283 7.0 17.0 0.00 0.00 0.00 67 1011.7
20240613155623 81 226 6.0 10.0 0.00 0.00 0.00 69 1011.8
20240613155533 81 232 6.0 10.0 0.00 0.00 0.00 69 1011.8
20240613155421 81 302 6.0 10.0 0.00 0.00 0.00 70 1011.7
20240613155330 81 247 6.0 12.0 0.00 0.00 0.00 70 1011.7
20240613155238 81 259 5.0 14.0 0.00 0.00 0.00 69 1011.8
20240613155128 81 242 5.0 14.0 0.00 0.00 0.00 70 1011.7
20240613155018 81 232 6.0 14.0 0.00 0.00 0.00 71 1011.7
20240613154927 81 223 6.0 14.0 0.00 0.00 0.00 70 1011.8
20240613154838 80 235 6.0 14.0 0.00 0.00 0.00 70 1011.8
20240613154728 80 244 5.0 14.0 0.00 0.00 0.00 69 1011.8
20240613154649 80 161 6.0 14.0 0.00 0.00 0.00 71 1011.8
20240613154522 80 260 7.0 14.0 0.00 0.00 0.00 69 1011.7
20240613154432 80 281 6.0 14.0 0.00 0.00 0.00 69 1011.7
20240613154323 80 260 6.0 9.0 0.00 0.00 0.00 70 1011.7
20240613154234 80 225 6.0 9.0 0.00 0.00 0.00 69 1011.7
20240613154143 80 254 7.0 9.0 0.00 0.00 0.00 69 1011.7
20240613154032 80 203 6.0 10.0 0.00 0.00 0.00 69 1011.7
20240613153920 80 259 6.0 8.0 0.00 0.00 0.00 70 1011.6
20240613153831 80 247 5.0 8.0 0.00 0.00 0.00 70 1011.6
20240613153742 80 236 4.0 8.0 0.00 0.00 0.00 71 1011.6
20240613153653 80 293 5.0 8.0 0.00 0.00 0.00 70 1011.6
20240613153542 80 227 5.0 8.0 0.00 0.00 0.00 70 1011.6
20240613153454 80 238 4.0 8.0 0.00 0.00 0.00 70 1011.6
20240613153342 80 217 4.0 8.0 0.00 0.00 0.00 70 1011.6
20240613153231 80 252 5.0 8.0 0.00 0.00 0.00 71 1011.5
20240613153152 80 252 5.0 10.0 0.00 0.00 0.00 71 1011.5
20240613153020 80 256 5.0 10.0 0.00 0.00 0.00 70 1011.4
20240613152929 80 227 5.0 10.0 0.00 0.00 0.00 71 1011.5
20240613152817 80 242 5.0 10.0 0.00 0.00 0.00 70 1011.4
20240613152727 80 230 5.0 10.0 0.00 0.00 0.00 70 1011.3
20240613152618 80 248 4.0 10.0 0.00 0.00 0.00 69 1011.2
20240613152529 80 236 5.0 10.0 0.00 0.00 0.00 69 1011.3
20240613152444 80 245 6.0 10.0 0.00 0.00 0.00 68 1011.3
20240613152332 80 239 4.0 10.0 0.00 0.00 0.00 69 1011.2
20240613152242 80 219 4.0 10.0 0.00 0.00 0.00 69 1011.2
20240613152130 80 243 5.0 10.0 0.00 0.00 0.00 69 1011.2
20240613152021 80 207 5.0 10.0 0.00 0.00 0.00 69 1011.3
20240613151930 80 254 5.0 10.0 0.00 0.00 0.00 69 1011.2
20240613151818 80 350 5.0 10.0 0.00 0.00 0.00 69 1011.2
20240613151728 80 215 6.0 10.0 0.00 0.00 0.00 69 1011.1
20240613151650 80 226 6.0 10.0 0.00 0.00 0.00 69 1011.1
20240613151519 80 222 5.0 10.0 0.00 0.00 0.00 70 1011.1
20240613151431 80 71 4.0 11.0 0.00 0.00 0.00 70 1011.0
20240613151324 80 244 4.0 11.0 0.00 0.00 0.00 68 1011.0
20240613151232 80 236 5.0 11.0 0.00 0.00 0.00 69 1010.9
20240613151143 80 161 4.0 11.0 0.00 0.00 0.00 69 1010.9
20240613151052 80 116 4.0 11.0 0.00 0.00 0.00 69 1010.9
20240613150939 79 46 3.0 10.0 0.00 0.00 0.00 70 1010.9
20240613150827 79 236 3.0 10.0 0.00 0.00 0.00 70 1010.8
20240613150737 79 238 3.0 10.0 0.00 0.00 0.00 70 1010.8
20240613150647 79 162 5.0 10.0 0.00 0.00 0.00 69 1010.8
20240613150556 79 243 5.0 10.0 0.00 0.00 0.00 70 1010.7
20240613150507 79 213 5.0 8.0 0.00 0.00 0.00 70 1010.7
20240613150355 79 151 4.0 9.0 0.00 0.00 0.00 69 1010.7
20240613150244 79 233 4.0 8.0 0.00 0.00 0.00 70 1010.7
20240613150209 79 239 4.0 8.0 0.00 0.00 0.00 70 1010.8
20240613150034 79 239 5.0 8.0 0.00 0.01 0.00 69 1010.7
20240613145945 79 216 4.0 10.0 0.00 0.01 0.00 70 1010.7
20240613145855 79 260 3.0 10.0 0.00 0.01 0.00 70 1010.7
20240613145742 79 284 2.0 10.0 0.00 0.01 0.00 70 1010.7
20240613145650 79 360 2.0 10.0 0.00 0.01 0.00 70 1010.7
20240613145519 79 231 3.0 10.0 0.00 0.01 0.00 70 1010.8
20240613145430 79 204 3.0 10.0 0.00 0.01 0.00 70 1010.8
20240613145341 79 231 4.0 10.0 0.00 0.01 0.00 70 1010.8
20240613145250 79 214 5.0 10.0 0.00 0.01 0.00 70 1010.8
20240613145138 79 217 4.0 10.0 0.00 0.01 0.00 70 1010.9
20240613145026 79 186 3.0 6.0 0.00 0.01 0.00 71 1010.9
20240613144921 79 230 2.0 8.0 0.00 0.01 0.00 71 1010.9
20240613144831 79 136 2.0 8.0 0.00 0.01 0.00 71 1010.9
20240613144741 79 155 2.0 8.0 0.00 0.01 0.00 71 1010.9
20240613144701 78 259 3.0 8.0 0.00 0.01 0.00 71 1010.9
20240613144551 78 190 3.0 8.0 0.00 0.01 0.00 71 1010.9
20240613144459 78 77 2.0 8.0 0.00 0.01 0.00 71 1010.9
20240613144347 78 251 3.0 9.0 0.00 0.01 0.00 71 1010.9
20240613144258 78 90 3.0 9.0 0.00 0.01 0.00 71 1010.8
20240613144204 78 200 2.0 9.0 0.00 0.01 0.00 71 1010.9
20240613144054 78 105 2.0 9.0 0.00 0.01 0.00 72 1010.9
20240613143940 78 277 2.0 9.0 0.00 0.01 0.00 72 1010.8
20240613143849 78 236 4.0 9.0 0.00 0.01 0.00 71 1010.9
20240613143804 78 202 4.0 9.0 0.00 0.01 0.00 71 1010.8
20240613143714 78 248 4.0 9.0 0.00 0.01 0.00 72 1010.8
20240613143540 78 294 2.0 9.0 0.00 0.01 0.00 72 1010.7
20240613143449 78 263 2.0 7.0 0.00 0.01 0.00 72 1010.7
20240613143318 78 71 2.0 7.0 0.00 0.01 0.00 72 1010.7
20240613143240 78 186 3.0 7.0 0.00 0.01 0.00 72 1010.8
20240613143105 78 287 3.0 7.0 0.00 0.01 0.00 72 1010.9
20240613142932 78 248 4.0 7.0 0.00 0.01 0.00 72 1011.0
20240613142821 78 226 3.0 7.0 0.00 0.01 0.00 72 1011.0
20240613142731 78 247 2.0 7.0 0.00 0.01 0.00 72 1011.1
20240613142626 78 263 2.0 8.0 0.00 0.01 0.00 72 1011.0
20240613142516 78 294 2.0 8.0 0.00 0.01 0.00 72 1011.1
20240613142426 78 278 3.0 8.0 0.00 0.01 0.00 72 1011.1
20240613142315 78 131 3.0 8.0 0.00 0.01 0.00 72 1011.1
20240613142204 77 143 2.0 8.0 0.00 0.01 0.00 72 1011.1
20240613142114 77 165 2.0 8.0 0.00 0.01 0.00 72 1011.1
20240613142001 77 121 3.0 8.0 0.00 0.01 0.00 72 1011.2
20240613141912 77 222 3.0 8.0 0.00 0.01 0.00 72 1011.2
20240613141739 77 250 2.0 7.0 0.00 0.01 0.00 72 1011.3
20240613141659 77 219 2.0 7.0 0.00 0.01 0.00 72 1011.3
20240613141527 77 139 3.0 7.0 0.00 0.01 0.00 72 1011.5
20240613141420 77 259 2.0 7.0 0.00 0.01 0.00 72 1011.4
20240613141329 77 254 2.0 7.0 0.00 0.01 0.00 72 1011.6
20240613141238 77 202 3.0 7.0 0.00 0.01 0.00 72 1011.6
20240613141126 77 279 3.0 7.0 0.00 0.01 0.00 72 1011.6
20240613141036 77 23 3.0 7.0 0.00 0.01 0.00 72 1011.6
20240613140925 77 188 3.0 7.0 0.00 0.01 0.00 72 1011.7
20240613140835 77 292 3.0 7.0 0.00 0.01 0.00 72 1011.7
20240613140745 77 153 2.0 7.0 0.00 0.01 0.00 73 1011.7
20240613140614 77 250 2.0 7.0 0.00 0.01 0.00 73 1011.8
20240613140524 77 272 2.0 7.0 0.00 0.01 0.00 73 1011.8
20240613140418 77 216 3.0 7.0 0.00 0.01 0.00 73 1011.9
20240613140329 77 254 3.0 7.0 0.00 0.01 0.00 73 1011.9
20240613140217 77 157 4.0 7.0 0.00 0.01 0.00 72 1011.9
20240613140135 77 247 4.0 8.0 0.00 0.01 0.00 72 1011.9
20240613140025 77 152 4.0 8.0 0.00 0.01 0.00 72 1011.9
20240613135936 77 257 4.0 8.0 0.00 0.01 0.00 72 1011.9
20240613135825 77 234 3.0 7.0 0.00 0.01 0.00 73 1012.1
20240613135714 77 149 2.0 6.0 0.00 0.01 0.00 73 1012.0
20240613135625 77 161 3.0 8.0 0.00 0.01 0.00 73 1012.1
20240613135534 77 265 3.0 8.0 0.00 0.01 0.00 72 1012.2
20240613135442 77 239 3.0 8.0 0.00 0.01 0.00 72 1012.2
20240613135351 77 250 3.0 8.0 0.00 0.01 0.00 73 1012.1
20240613135307 77 205 3.0 8.0 0.00 0.01 0.00 73 1012.2
20240613135214 77 217 3.0 8.0 0.00 0.01 0.00 73 1012.2
20240613135041 77 257 3.0 8.0 0.00 0.01 0.00 73 1012.3
20240613134950 77 249 3.0 8.0 0.00 0.01 0.00 74 1012.3
20240613134859 77 257 3.0 10.0 0.00 0.01 0.00 74 1012.3
20240613134749 77 242 3.0 10.0 0.00 0.01 0.00 74 1012.2
20240613134710 77 192 2.0 10.0 0.00 0.01 0.00 75 1012.2
20240613134538 76 188 2.0 10.0 0.00 0.01 0.00 75 1012.3
20240613134448 76 290 2.0 10.0 0.00 0.01 0.00 75 1012.3
20240613134400 76 236 3.0 10.0 0.00 0.01 0.00 74 1012.4
20240613134248 76 287 4.0 10.0 0.00 0.01 0.00 74 1012.3
20240613134137 76 246 4.0 10.0 0.00 0.01 0.00 74 1012.3
20240613134047 76 194 3.0 10.0 0.00 0.01 0.00 74 1012.5
20240613134001 76 233 3.0 6.0 0.00 0.01 0.00 74 1012.4
20240613133850 76 227 4.0 10.0 0.00 0.01 0.00 74 1012.4
20240613133738 76 248 3.0 10.0 0.00 0.01 0.00 75 1012.4
20240613133650 76 269 3.0 10.0 0.00 0.01 0.00 75 1012.4
20240613133538 76 257 3.0 10.0 0.00 0.01 0.00 74 1012.4
20240613133449 76 203 3.0 10.0 0.00 0.01 0.00 74 1012.5
20240613133358 76 207 3.0 10.0 0.00 0.01 0.00 74 1012.4
20240613133308 76 188 3.0 10.0 0.00 0.01 0.00 75 1012.5
20240613133209 76 267 4.0 10.0 0.00 0.01 0.00 74 1012.6
20240613133035 76 250 4.0 10.0 0.00 0.01 0.00 74 1012.6
20240613132923 76 217 3.0 7.0 0.00 0.01 0.00 74 1012.6
20240613132833 76 232 4.0 7.0 0.00 0.01 0.00 74 1012.6
20240613132743 76 243 4.0 7.0 0.00 0.01 0.00 74 1012.5
20240613132616 76 244 4.0 7.0 0.00 0.01 0.00 74 1012.5
20240613132526 76 281 4.0 6.0 0.00 0.01 0.00 74 1012.6
20240613132437 76 254 3.0 6.0 0.00 0.01 0.00 74 1012.6
20240613132326 76 266 2.0 6.0 0.00 0.01 0.00 74 1012.6
20240613132236 76 276 2.0 7.0 0.00 0.01 0.00 74 1012.6
20240613132147 76 264 2.0 7.0 0.00 0.01 0.00 75 1012.6
20240613132035 76 260 3.0 7.0 0.00 0.01 0.00 75 1012.6
20240613131945 76 252 3.0 7.0 0.00 0.01 0.00 74 1012.6
20240613131833 76 206 3.0 7.0 0.00 0.01 0.00 75 1012.6
20240613131742 76 229 3.0 7.0 0.00 0.01 0.00 74 1012.6
20240613131640 76 266 2.0 7.0 0.00 0.01 0.00 75 1012.6
20240613131529 76 246 2.0 7.0 0.00 0.01 0.00 75 1012.6
20240613131443 76 196 3.0 7.0 0.00 0.01 0.00 75 1012.6
20240613131354 76 242 2.0 6.0 0.00 0.01 0.00 75 1012.6
20240613131304 76 228 3.0 6.0 0.00 0.01 0.00 75 1012.7
20240613131154 76 270 3.0 6.0 0.00 0.01 0.00 74 1012.6
20240613131020 76 240 3.0 7.0 0.00 0.01 0.00 75 1012.6
20240613130931 76 144 2.0 5.0 0.00 0.01 0.00 75 1012.7
20240613130841 75 225 2.0 5.0 0.00 0.01 0.00 75 1012.7
20240613130730 76 250 2.0 5.0 0.00 0.01 0.00 75 1012.5
20240613130618 75 218 3.0 5.0 0.00 0.01 0.00 75 1012.6
20240613130529 75 236 3.0 5.0 0.00 0.01 0.00 75 1012.6
20240613130419 75 176 2.0 7.0 0.00 0.01 0.00 75 1012.5
20240613130329 75 261 2.0 7.0 0.00 0.01 0.00 75 1012.5
20240613130214 75 149 1.0 7.0 0.00 0.01 0.00 75 1012.6
20240613130100 75 249 1.0 7.0 0.00 0.08 0.00 76 1012.6
20240613130009 75 169 2.0 7.0 0.00 0.08 0.00 75 1012.6
20240613125918 75 215 3.0 7.0 0.00 0.08 0.00 75 1012.6
20240613125745 75 211 3.0 7.0 0.00 0.08 0.00 75 1012.8
20240613125654 75 235 3.0 7.0 0.00 0.08 0.00 75 1012.7
20240613125544 75 252 2.0 5.0 0.00 0.08 0.00 75 1012.7
20240613125454 75 248 2.0 5.0 0.00 0.08 0.00 75 1012.7
20240613125404 75 188 2.0 5.0 0.00 0.08 0.00 75 1012.8
20240613125254 75 222 2.0 5.0 0.00 0.08 0.00 75 1012.8
20240613125204 75 252 2.0 5.0 0.00 0.08 0.00 75 1012.7
20240613125053 75 244 2.0 5.0 0.00 0.08 0.00 75 1012.7
20240613125007 75 276 3.0 6.0 0.00 0.08 0.00 75 1012.6
20240613124854 75 248 3.0 5.0 0.00 0.08 0.00 75 1012.7
20240613124742 75 264 2.0 5.0 0.00 0.08 0.00 75 1012.7
20240613124703 75 211 2.0 5.0 0.00 0.08 0.00 75 1012.8
20240613124551 75 252 3.0 5.0 0.00 0.08 0.00 76 1012.8
20240613124440 75 242 3.0 5.0 0.00 0.08 0.00 76 1012.8
20240613124328 75 223 2.0 5.0 0.00 0.08 0.00 76 1012.8
20240613124237 75 238 1.0 5.0 0.00 0.08 0.00 76 1012.8
20240613124147 75 283 2.0 5.0 0.00 0.08 0.00 76 1012.7
20240613124036 75 223 2.0 6.0 0.00 0.08 0.00 76 1012.7
20240613123923 75 268 2.0 6.0 0.00 0.08 0.00 77 1012.8
20240613123833 75 209 2.0 6.0 0.00 0.08 0.00 76 1012.8
20240613123744 75 232 2.0 6.0 0.00 0.08 0.00 76 1012.8
20240613123615 75 234 3.0 6.0 0.00 0.08 0.00 76 1012.8
20240613123504 75 222 2.0 6.0 0.00 0.08 0.00 77 1012.8
20240613123353 74 232 3.0 6.0 0.00 0.08 0.00 76 1012.8
20240613123241 74 237 2.0 6.0 0.00 0.08 0.00 76 1012.7
20240613123204 74 238 2.0 6.0 0.00 0.08 0.00 77 1012.8
20240613123031 74 242 2.0 8.0 0.00 0.08 0.00 77 1012.7
20240613122941 74 245 2.0 8.0 0.00 0.08 0.00 77 1012.7
20240613122829 74 190 3.0 8.0 0.00 0.08 0.00 76 1012.7
20240613122717 74 230 2.0 8.0 0.00 0.08 0.00 76 1012.8
20240613122627 74 207 2.0 8.0 0.00 0.08 0.00 76 1012.7
20240613122536 74 207 2.0 8.0 0.00 0.08 0.00 76 1012.7
20240613122447 74 225 2.0 8.0 0.00 0.08 0.00 76 1012.7
20240613122401 74 225 3.0 8.0 0.00 0.08 0.00 76 1012.7
20240613122249 74 237 3.0 8.0 0.00 0.08 0.00 76 1012.7
20240613122138 74 238 2.0 5.0 0.00 0.08 0.00 77 1012.7
20240613122047 74 226 2.0 5.0 0.00 0.08 0.00 77 1012.7
20240613121957 74 247 2.0 5.0 0.00 0.08 0.00 76 1012.8
20240613121847 74 235 2.0 5.0 0.00 0.08 0.00 76 1012.7
20240613121757 74 225 2.0 7.0 0.00 0.08 0.00 76 1012.8
20240613121654 74 246 3.0 7.0 0.00 0.08 0.00 76 1012.7
20240613121524 74 248 2.0 7.0 0.00 0.08 0.00 76 1012.7
20240613121434 74 338 2.0 7.0 0.00 0.08 0.00 76 1012.7
20240613121323 74 279 3.0 7.0 0.00 0.08 0.00 76 1012.7
20240613121217 74 236 3.0 7.0 0.00 0.08 0.00 76 1012.7
20240613121127 74 240 3.0 7.0 0.00 0.08 0.00 76 1012.7
20240613121016 74 279 3.0 7.0 0.00 0.08 0.00 76 1012.8
20240613120905 74 251 3.0 5.0 0.00 0.08 0.00 75 1012.8
20240613120814 74 250 3.0 5.0 0.00 0.08 0.00 75 1012.7
20240613120642 74 261 3.0 5.0 0.00 0.08 0.00 75 1012.7
20240613120530 74 289 3.0 6.0 0.00 0.08 0.00 75 1012.6
20240613120439 74 244 2.0 6.0 0.00 0.08 0.00 76 1012.6
20240613120349 74 251 3.0 6.0 0.00 0.08 0.00 75 1012.6
20240613120258 74 128 3.0 6.0 0.00 0.08 0.00 76 1012.5
20240613120200 74 233 2.0 5.0 0.00 0.08 0.00 76 1012.6
20240613120025 74 240 2.0 6.0 0.00 0.08 0.00 76 1012.6
20240613115936 74 259 2.0 6.0 0.00 0.08 0.00 76 1012.6
20240613115828 74 229 3.0 6.0 0.00 0.08 0.00 75 1012.5
20240613115739 74 246 3.0 6.0 0.00 0.08 0.00 75 1012.5
20240613115628 74 271 2.0 6.0 0.00 0.08 0.00 75 1012.5
20240613115538 74 234 2.0 6.0 0.00 0.08 0.00 76 1012.5
20240613115448 74 322 2.0 6.0 0.00 0.08 0.00 76 1012.4
20240613115334 74 257 3.0 6.0 0.00 0.08 0.00 76 1012.5
20240613115223 74 215 3.0 6.0 0.00 0.08 0.00 76 1012.4
20240613115134 74 246 3.0 5.0 0.00 0.08 0.00 76 1012.4
20240613115023 74 254 3.0 5.0 0.00 0.08 0.00 76 1012.4
20240613114933 74 222 3.0 5.0 0.00 0.08 0.00 76 1012.4
20240613114820 74 213 3.0 5.0 0.00 0.08 0.00 76 1012.4
20240613114721 74 244 3.0 4.0 0.00 0.08 0.00 77 1012.4
20240613114615 74 257 3.0 8.0 0.00 0.08 0.00 77 1012.4
20240613114442 74 232 3.0 8.0 0.00 0.08 0.00 77 1012.4
20240613114353 73 237 2.0 8.0 0.00 0.08 0.00 77 1012.4
20240613114242 73 196 2.0 8.0 0.00 0.08 0.00 77 1012.4
20240613114152 73 271 2.0 8.0 0.00 0.08 0.00 77 1012.4
20240613114103 73 246 2.0 8.0 0.00 0.08 0.00 77 1012.4
20240613113954 73 265 2.0 8.0 0.00 0.08 0.00 77 1012.4
20240613113903 73 226 3.0 8.0 0.00 0.08 0.00 77 1012.4
20240613113730 73 225 3.0 8.0 0.00 0.08 0.00 77 1012.3
20240613113640 73 237 2.0 5.0 0.00 0.08 0.00 77 1012.3
20240613113529 73 233 1.0 5.0 0.00 0.08 0.00 77 1012.3
20240613113419 73 246 1.0 5.0 0.00 0.08 0.00 77 1012.3
20240613113330 73 237 2.0 5.0 0.00 0.08 0.00 77 1012.3
20240613113243 73 218 3.0 5.0 0.00 0.08 0.00 77 1012.3
20240613113205 73 245 3.0 5.0 0.00 0.08 0.00 77 1012.4
20240613113052 73 244 2.0 5.0 0.00 0.08 0.00 77 1012.3
20240613112940 73 187 2.0 5.0 0.00 0.08 0.00 77 1012.3
20240613112851 73 230 2.0 4.0 0.00 0.08 0.00 77 1012.2
20240613112718 73 202 2.0 4.0 0.00 0.08 0.00 77 1012.2
20240613112628 73 252 2.0 4.0 0.00 0.08 0.00 77 1012.3
20240613112538 73 251 2.0 4.0 0.00 0.08 0.00 77 1012.3
20240613112448 73 224 2.0 4.0 0.00 0.08 0.00 77 1012.3
20240613112336 73 202 2.0 4.0 0.00 0.08 0.00 77 1012.3
20240613112246 73 246 2.0 4.0 0.00 0.08 0.00 77 1012.4
20240613112135 73 264 2.0 4.0 0.00 0.08 0.00 77 1012.4
20240613112024 73 254 2.0 4.0 0.00 0.08 0.00 77 1012.4
20240613111916 73 248 2.0 4.0 0.00 0.08 0.00 77 1012.4
20240613111825 73 261 2.0 4.0 0.00 0.08 0.00 77 1012.3
20240613111714 73 224 2.0 4.0 0.00 0.08 0.00 77 1012.3
20240613111635 73 252 2.0 5.0 0.00 0.08 0.00 77 1012.3
20240613111524 73 225 2.0 5.0 0.00 0.08 0.00 77 1012.3
20240613111414 73 238 2.0 5.0 0.00 0.08 0.00 77 1012.3
20240613111324 73 242 3.0 5.0 0.00 0.08 0.00 78 1012.3
20240613111214 73 244 2.0 5.0 0.00 0.08 0.00 77 1012.4
20240613111123 73 215 2.0 5.0 0.00 0.08 0.00 77 1012.3
20240613111038 73 255 2.0 5.0 0.00 0.08 0.00 77 1012.3
20240613110948 73 230 3.0 5.0 0.00 0.08 0.00 77 1012.3
20240613110835 73 247 2.0 5.0 0.00 0.08 0.00 77 1012.4
20240613110744 73 231 2.0 5.0 0.00 0.08 0.00 77 1012.3
20240613110632 73 134 2.0 5.0 0.00 0.08 0.00 77 1012.2
20240613110523 73 283 2.0 5.0 0.00 0.08 0.00 77 1012.2
20240613110414 73 166 2.0 5.0 0.00 0.08 0.00 77 1012.2
20240613110323 73 234 2.0 5.0 0.00 0.08 0.00 78 1012.1
20240613110233 73 248 3.0 5.0 0.00 0.08 0.00 77 1012.0
20240613110156 73 237 3.0 5.0 0.00 0.08 0.00 77 1012.0
20240613110026 73 232 2.0 7.0 0.00 0.08 0.00 77 1012.1
20240613105936 73 238 2.0 7.0 0.00 0.08 0.00 77 1012.1
20240613105847 73 224 2.0 7.0 0.00 0.08 0.00 77 1012.1
20240613105735 73 235 2.0 7.0 0.00 0.08 0.00 77 1012.1
20240613105648 73 244 3.0 7.0 0.00 0.08 0.00 77 1012.0
20240613105534 73 225 2.0 7.0 0.00 0.08 0.00 77 1012.0
20240613105445 73 288 2.0 7.0 0.00 0.08 0.00 77 1012.0
20240613105355 72 232 3.0 7.0 0.00 0.08 0.00 77 1012.1
20240613105243 73 246 3.0 7.0 0.00 0.08 0.00 77 1012.0
20240613105153 73 251 2.0 4.0 0.00 0.08 0.00 77 1012.0
20240613105104 72 217 3.0 5.0 0.00 0.08 0.00 77 1012.0
20240613105015 72 240 2.0 5.0 0.00 0.08 0.00 77 1012.0
20240613104905 72 223 2.0 5.0 0.00 0.08 0.00 77 1011.9
20240613104757 72 144 2.0 5.0 0.00 0.08 0.00 77 1011.9
20240613104716 72 229 2.0 5.0 0.00 0.08 0.00 77 1012.0
20240613104545 72 224 3.0 5.0 0.00 0.08 0.00 77 1011.9
20240613104433 72 238 2.0 5.0 0.00 0.08 0.00 77 1011.9
20240613104323 72 263 2.0 5.0 0.00 0.08 0.00 77 1011.8
20240613104211 72 234 2.0 7.0 0.00 0.08 0.00 77 1011.8
20240613104122 72 240 2.0 7.0 0.00 0.08 0.00 77 1011.9
20240613104011 72 245 2.0 7.0 0.00 0.08 0.00 77 1012.0
20240613103900 72 223 2.0 7.0 0.00 0.08 0.00 77 1011.9
20240613103747 72 235 2.0 7.0 0.00 0.08 0.00 77 1011.9
20240613103658 72 210 3.0 7.0 0.00 0.08 0.00 77 1011.7
20240613103548 72 231 3.0 7.0 0.00 0.08 0.00 77 1011.8
20240613103440 72 232 3.0 7.0 0.00 0.08 0.00 77 1011.7
20240613103351 72 273 2.0 3.0 0.00 0.08 0.00 77 1011.7
20240613103240 72 276 2.0 4.0 0.00 0.08 0.00 77 1011.7
20240613103203 72 226 2.0 4.0 0.00 0.08 0.00 77 1011.6
20240613103027 72 225 2.0 4.0 0.00 0.08 0.00 77 1011.5
20240613102937 72 250 2.0 4.0 0.00 0.08 0.00 77 1011.5
20240613102826 72 261 2.0 4.0 0.00 0.08 0.00 77 1011.6
20240613102736 72 137 2.0 4.0 0.00 0.08 0.00 77 1011.6
20240613102626 72 239 2.0 4.0 0.00 0.08 0.00 77 1011.6
20240613102536 72 238 3.0 4.0 0.00 0.08 0.00 77 1011.6
20240613102427 72 237 3.0 7.0 0.00 0.08 0.00 77 1011.5
20240613102317 72 215 2.0 7.0 0.00 0.08 0.00 77 1011.6
20240613102231 72 233 2.0 7.0 0.00 0.08 0.00 77 1011.6
20240613102119 72 232 2.0 7.0 0.00 0.08 0.00 77 1011.5
20240613101947 72 246 2.0 7.0 0.00 0.08 0.00 77 1011.6
20240613101856 72 258 2.0 7.0 0.00 0.08 0.00 77 1011.4
20240613101805 72 180 3.0 7.0 0.00 0.08 0.00 77 1011.6
20240613101704 72 240 3.0 7.0 0.00 0.08 0.00 78 1011.6
20240613101531 72 228 2.0 5.0 0.00 0.08 0.00 78 1011.6
20240613101445 72 243 2.0 5.0 0.00 0.08 0.00 78 1011.6
20240613101332 72 229 2.0 5.0 0.00 0.08 0.00 78 1011.6
20240613101242 72 246 2.0 5.0 0.00 0.08 0.00 78 1011.6
20240613101131 72 244 2.0 5.0 0.00 0.08 0.00 78 1011.6
20240613101021 72 225 2.0 5.0 0.00 0.08 0.00 78 1011.6
20240613100916 72 244 2.0 5.0 0.00 0.08 0.00 78 1011.6
20240613100825 72 177 2.0 5.0 0.00 0.08 0.00 78 1011.6
20240613100735 72 221 2.0 5.0 0.00 0.08 0.00 78 1011.6
20240613100646 72 218 2.0 5.0 0.00 0.08 0.00 78 1011.5
20240613100534 72 224 2.0 5.0 0.00 0.08 0.00 78 1011.6
20240613100423 72 208 2.0 5.0 0.00 0.08 0.00 78 1011.6
20240613100332 72 229 3.0 5.0 0.00 0.08 0.00 78 1011.6
20240613100241 72 241 2.0 5.0 0.00 0.08 0.00 78 1011.6
20240613100203 72 236 2.0 5.0 0.00 0.08 0.00 78 1011.6
20240613100028 72 263 1.0 4.0 0.00 0.08 0.00 78 1011.5
20240613095922 72 289 1.0 4.0 0.00 0.08 0.00 78 1011.4
20240613095832 72 164 2.0 4.0 0.00 0.08 0.00 78 1011.4
20240613095722 72 244 2.0 4.0 0.00 0.08 0.00 78 1011.5
20240613095633 72 241 2.0 4.0 0.00 0.08 0.00 78 1011.5
20240613095522 72 240 2.0 4.0 0.00 0.08 0.00 78 1011.5
20240613095431 72 254 2.0 4.0 0.00 0.08 0.00 78 1011.6
20240613095322 72 219 1.0 3.0 0.00 0.08 0.00 78 1011.6
20240613095233 72 57 1.0 3.0 0.00 0.08 0.00 78 1011.7
20240613095144 72 90 1.0 3.0 0.00 0.08 0.00 78 1011.7
20240613095056 72 253 1.0 3.0 0.00 0.08 0.00 78 1011.6
20240613094923 72 251 1.0 3.0 0.00 0.08 0.00 78 1011.7
20240613094837 72 123 1.0 3.0 0.00 0.08 0.00 78 1011.6
20240613094718 72 161 1.0 3.0 0.00 0.08 0.00 78 1011.7
20240613094607 72 248 1.0 3.0 0.00 0.08 0.00 78 1011.7
20240613094455 72 107 1.0 3.0 0.00 0.08 0.00 78 1011.7
20240613094321 72 245 1.0 3.0 0.00 0.08 0.00 78 1011.8
20240613094231 72 144 1.0 3.0 0.00 0.08 0.00 78 1011.8
20240613094106 72 260 0.0 3.0 0.00 0.08 0.00 78 1011.7
20240613094016 72 260 1.0 3.0 0.00 0.08 0.00 78 1011.7
20240613093844 72 236 1.0 3.0 0.00 0.08 0.00 78 1011.7
20240613093731 72 242 1.0 4.0 0.00 0.08 0.00 78 1011.6
20240613093639 72 215 1.0 4.0 0.00 0.08 0.00 78 1011.6
20240613093549 72 153 0.0 4.0 0.00 0.08 0.00 78 1011.7
20240613093503 72 239 0.0 4.0 0.00 0.08 0.00 78 1011.8
20240613093331 72 239 1.0 4.0 0.00 0.08 0.00 78 1011.8
20240613093219 72 239 1.0 4.0 0.00 0.08 0.00 78 1011.8
20240613093141 72 239 1.0 4.0 0.00 0.08 0.00 78 1011.8
20240613093009 72 150 1.0 4.0 0.00 0.08 0.00 78 1011.8
20240613092856 72 130 1.0 2.0 0.00 0.08 0.00 78 1011.8
20240613092744 72 223 1.0 2.0 0.00 0.08 0.00 77 1011.8
20240613092653 72 217 0.0 3.0 0.00 0.08 0.00 77 1011.8
20240613092541 72 211 1.0 3.0 0.00 0.08 0.00 77 1011.7
20240613092451 72 181 0.0 4.0 0.00 0.08 0.00 77 1011.7
20240613092340 72 181 0.0 4.0 0.00 0.08 0.00 77 1011.7
20240613092249 72 181 1.0 4.0 0.00 0.08 0.00 77 1011.9
20240613092202 72 181 1.0 4.0 0.00 0.08 0.00 77 1011.9
20240613092112 72 249 1.0 4.0 0.00 0.08 0.00 77 1011.8
20240613092022 72 219 1.0 4.0 0.00 0.08 0.00 77 1011.8
20240613091849 72 240 1.0 4.0 0.00 0.08 0.00 77 1011.8
20240613091759 72 130 1.0 4.0 0.00 0.08 0.00 77 1011.8
20240613091658 72 130 1.0 4.0 0.00 0.08 0.00 77 1011.8
20240613091547 72 222 1.0 3.0 0.00 0.08 0.00 77 1011.8
20240613091457 72 142 1.0 3.0 0.00 0.08 0.00 77 1011.8
20240613091408 72 137 1.0 3.0 0.00 0.08 0.00 76 1011.9
20240613091319 72 250 1.0 3.0 0.00 0.08 0.00 76 1011.9
20240613091210 72 184 0.0 3.0 0.00 0.08 0.00 76 1011.9
20240613091059 72 184 1.0 3.0 0.00 0.08 0.00 76 1011.9
20240613091010 72 250 1.0 3.0 0.00 0.08 0.00 76 1011.8
20240613090904 72 250 1.0 3.0 0.00 0.08 0.00 76 1011.8
20240613090815 72 250 1.0 2.0 0.00 0.08 0.00 76 1011.9
20240613090643 73 250 1.0 2.0 0.00 0.08 0.00 76 1011.9
20240613090552 73 250 1.0 2.0 0.00 0.08 0.00 76 1011.9
20240613090501 73 121 0.0 2.0 0.00 0.08 0.00 76 1011.9
20240613090411 73 262 0.0 2.0 0.00 0.08 0.00 76 1011.8
20240613090301 73 262 0.0 2.0 0.00 0.08 0.00 76 1011.8
20240613090201 73 262 0.0 2.0 0.00 0.08 0.00 76 1011.7
20240613090046 73 262 1.0 2.0 0.00 0.08 0.00 75 1011.9
20240613085916 73 206 1.0 2.0 0.00 0.08 0.00 75 1011.8
20240613085826 73 209 1.0 2.0 0.00 0.08 0.00 75 1011.8
20240613085720 73 148 1.0 3.0 0.00 0.08 0.00 75 1011.7
20240613085630 73 203 1.0 3.0 0.00 0.08 0.00 75 1011.8
20240613085518 73 132 1.0 3.0 0.00 0.08 0.00 75 1011.8
20240613085429 73 217 0.0 3.0 0.00 0.08 0.00 75 1011.8
20240613085338 73 199 0.0 3.0 0.00 0.08 0.00 75 1011.8
20240613085248 73 199 1.0 3.0 0.00 0.08 0.00 75 1011.8
20240613085116 73 226 1.0 3.0 0.00 0.08 0.00 75 1011.8
20240613085005 73 98 1.0 5.0 0.00 0.08 0.00 75 1011.9
20240613084852 73 259 1.0 5.0 0.00 0.08 0.00 75 1012.0
20240613084802 73 131 2.0 5.0 0.00 0.08 0.00 74 1012.0
20240613084640 73 240 2.0 7.0 0.00 0.08 0.00 74 1011.9
20240613084528 73 273 1.0 7.0 0.00 0.08 0.00 74 1011.8
20240613084444 73 167 1.0 7.0 0.00 0.08 0.00 74 1011.8
20240613084331 73 145 1.0 7.0 0.00 0.08 0.00 74 1011.8
20240613084218 73 156 2.0 7.0 0.00 0.08 0.00 74 1011.8
20240613084129 73 150 2.0 7.0 0.00 0.08 0.00 74 1011.8
20240613084039 73 172 3.0 7.0 0.00 0.08 0.00 74 1011.8
20240613083927 73 213 3.0 7.0 0.00 0.08 0.00 74 1011.8
20240613083836 73 167 2.0 4.0 0.00 0.08 0.00 74 1011.8
20240613083724 73 141 2.0 4.0 0.00 0.08 0.00 74 1011.8
20240613083634 74 159 2.0 4.0 0.00 0.08 0.00 74 1011.8
20240613083544 74 151 1.0 5.0 0.00 0.08 0.00 74 1011.8
20240613083455 74 221 2.0 5.0 0.00 0.08 0.00 74 1011.8
20240613083322 74 157 2.0 5.0 0.00 0.08 0.00 74 1011.9
20240613083216 74 161 1.0 4.0 0.00 0.08 0.00 74 1011.9
20240613083140 74 145 1.0 4.0 0.00 0.08 0.00 74 1011.9
20240613083026 74 198 1.0 4.0 0.00 0.08 0.00 74 1011.9
20240613082914 74 161 1.0 4.0 0.00 0.08 0.00 73 1011.8
20240613082825 74 175 1.0 4.0 0.00 0.08 0.00 73 1011.8
20240613082734 74 151 2.0 4.0 0.00 0.08 0.00 73 1011.8
20240613082624 74 153 2.0 4.0 0.00 0.08 0.00 73 1011.8
20240613082533 74 137 2.0 4.0 0.00 0.08 0.00 73 1011.8
20240613082425 74 159 1.0 4.0 0.00 0.08 0.00 73 1011.8
20240613082313 74 145 2.0 5.0 0.00 0.08 0.00 73 1011.8
20240613082205 74 140 2.0 5.0 0.00 0.08 0.00 73 1011.8
20240613082052 74 246 1.0 5.0 0.00 0.08 0.00 72 1011.8
20240613082004 74 98 2.0 5.0 0.00 0.08 0.00 72 1011.8
20240613081851 74 139 2.0 5.0 0.00 0.08 0.00 72 1011.8
20240613081801 74 171 2.0 5.0 0.00 0.08 0.00 72 1011.7
20240613081640 74 176 2.0 5.0 0.00 0.08 0.00 72 1011.8
20240613081529 74 157 2.0 7.0 0.00 0.08 0.00 72 1011.7
20240613081439 74 158 2.0 7.0 0.00 0.08 0.00 72 1011.7
20240613081348 75 155 2.0 7.0 0.00 0.08 0.00 72 1011.7
20240613081218 75 196 2.0 9.0 0.00 0.08 0.00 71 1011.7
20240613081129 75 155 2.0 9.0 0.00 0.08 0.00 71 1011.7
20240613081017 75 163 2.0 9.0 0.00 0.08 0.00 71 1011.7
20240613080932 75 146 2.0 9.0 0.00 0.08 0.00 71 1011.8
20240613080823 75 170 2.0 9.0 0.00 0.08 0.00 71 1011.8
20240613080714 75 177 3.0 9.0 0.00 0.08 0.00 71 1011.7
20240613080626 75 155 3.0 9.0 0.00 0.08 0.00 71 1011.8
20240613080515 75 161 5.0 9.0 0.00 0.08 0.00 71 1011.8
20240613080341 75 150 4.0 9.0 0.00 0.08 0.00 71 1011.7
20240613080229 75 157 4.0 9.0 0.00 0.08 0.00 71 1011.7
20240613080151 75 161 4.0 9.0 0.00 0.08 0.00 71 1011.7
20240613080015 74 152 2.0 5.0 0.00 0.08 0.00 71 1011.8
20240613075926 75 161 2.0 4.0 0.00 0.08 0.00 71 1011.8
20240613075841 74 155 2.0 4.0 0.00 0.08 0.00 71 1011.8
20240613075729 74 182 1.0 5.0 0.00 0.08 0.00 72 1011.9
20240613075639 74 148 0.0 5.0 0.00 0.08 0.00 71 1011.9
20240613075529 75 148 1.0 5.0 0.00 0.08 0.00 71 1011.9
20240613075440 74 148 0.0 5.0 0.00 0.08 0.00 72 1011.9
20240613075351 74 148 1.0 5.0 0.00 0.08 0.00 72 1011.8
20240613075240 75 148 1.0 5.0 0.00 0.08 0.00 71 1011.9
20240613075150 75 148 3.0 5.0 0.00 0.08 0.00 71 1011.9
20240613075015 75 148 4.0 5.0 0.00 0.08 0.00 71 1011.9
20240613074904 75 132 2.0 5.0 0.00 0.08 0.00 71 1011.8
20240613074814 75 157 1.0 5.0 0.00 0.08 0.00 72 1011.8
20240613074713 75 147 1.0 5.0 0.00 0.08 0.00 71 1011.8
20240613074526 75 142 1.0 5.0 0.00 0.08 0.00 71 1011.9
20240613074436 75 148 0.0 5.0 0.00 0.08 0.00 71 1011.9
20240613074347 75 137 0.0 5.0 0.00 0.08 0.00 71 1011.8
20240613074257 75 137 1.0 5.0 0.00 0.08 0.00 71 1011.8
20240613074146 75 137 1.0 5.0 0.00 0.08 0.00 71 1011.9
20240613074058 75 137 3.0 9.0 0.00 0.08 0.00 71 1011.8
20240613073947 75 134 4.0 9.0 0.00 0.08 0.00 71 1011.8
20240613073856 75 127 4.0 9.0 0.00 0.08 0.00 71 1011.8
20240613073744 75 132 3.0 9.0 0.00 0.08 0.00 71 1011.8
20240613073654 75 142 1.0 9.0 0.00 0.08 0.00 71 1011.8
20240613073541 75 182 1.0 9.0 0.00 0.08 0.00 71 1011.9
20240613073431 75 182 3.0 9.0 0.00 0.08 0.00 71 1011.8
20240613073340 75 190 5.0 9.0 0.00 0.08 0.00 71 1011.8
20240613073254 75 120 4.0 9.0 0.00 0.08 0.00 71 1011.8
20240613073153 75 139 3.0 9.0 0.00 0.08 0.00 71 1011.8
20240613073039 75 122 3.0 5.0 0.00 0.08 0.00 71 1011.7
20240613072929 75 144 3.0 5.0 0.00 0.08 0.00 71 1011.7
20240613072817 75 116 3.0 5.0 0.00 0.08 0.00 71 1011.7
20240613072705 75 135 4.0 5.0 0.00 0.08 0.00 71 1011.6
20240613072554 75 134 3.0 7.0 0.00 0.08 0.00 70 1011.7
20240613072442 75 146 1.0 9.0 0.00 0.08 0.00 71 1011.7
20240613072330 75 253 1.0 9.0 0.00 0.08 0.00 71 1011.8
20240613072240 75 253 1.0 9.0 0.00 0.08 0.00 70 1011.8
20240613072127 75 253 2.0 9.0 0.00 0.08 0.00 70 1011.7
20240613072037 75 253 2.0 9.0 0.00 0.08 0.00 70 1011.7
20240613071947 75 253 2.0 9.0 0.00 0.08 0.00 70 1011.7
20240613071901 75 224 3.0 9.0 0.00 0.08 0.00 70 1011.7
20240613071811 75 150 5.0 10.0 0.00 0.08 0.00 70 1011.6
20240613071731 75 142 7.0 10.0 0.00 0.08 0.00 70 1011.6
20240613071536 75 129 7.0 12.0 0.00 0.08 0.00 70 1011.5
20240613071445 75 114 7.0 12.0 0.00 0.08 0.00 70 1011.6
20240613071358 75 120 6.0 12.0 0.00 0.08 0.00 70 1011.6
20240613071307 75 120 5.0 12.0 0.00 0.08 0.00 70 1011.7
20240613071155 75 150 5.0 12.0 0.00 0.08 0.00 70 1011.7
20240613071022 75 150 6.0 12.0 0.00 0.08 0.00 70 1011.8
20240613070932 75 142 7.0 12.0 0.00 0.08 0.00 70 1011.7
20240613070843 75 152 9.0 12.0 0.00 0.08 0.00 70 1011.7
20240613070752 75 128 9.0 12.0 0.00 0.08 0.00 70 1011.6
20240613070641 75 126 8.0 9.0 0.00 0.08 0.00 70 1011.6
20240613070553 75 140 5.0 9.0 0.00 0.08 0.00 70 1011.8
20240613070443 75 138 5.0 9.0 0.00 0.08 0.00 70 1011.8
20240613070352 75 159 6.0 9.0 0.00 0.08 0.00 70 1011.7
20240613070240 75 145 7.0 9.0 0.00 0.08 0.00 70 1011.8
20240613070141 75 120 5.0 9.0 0.00 0.08 0.00 70 1011.7
20240613070027 75 137 5.0 9.0 0.00 0.08 0.00 70 1011.9
20240613065916 75 151 6.0 9.0 0.00 0.08 0.00 70 1011.9
20240613065826 75 142 6.0 9.0 0.00 0.08 0.00 70 1011.9
20240613065737 75 130 5.0 8.0 0.00 0.08 0.00 70 1011.9
20240613065647 75 144 4.0 8.0 0.00 0.08 0.00 70 1011.9
20240613065556 75 128 3.0 8.0 0.00 0.08 0.00 70 1011.8
20240613065445 75 99 3.0 8.0 0.00 0.08 0.00 70 1011.9
20240613065318 75 92 3.0 8.0 0.00 0.08 0.00 70 1011.9
20240613065227 75 80 3.0 8.0 0.00 0.08 0.00 70 1011.9
20240613065118 75 78 3.0 8.0 0.00 0.08 0.00 70 1011.9
20240613065028 75 71 4.0 8.0 0.00 0.08 0.00 70 1012.0
20240613064938 75 65 5.0 8.0 0.00 0.08 0.00 69 1012.0
20240613064846 75 34 5.0 7.0 0.00 0.08 0.00 70 1012.0
20240613064757 75 68 4.0 6.0 0.00 0.08 0.00 69 1011.9
20240613064718 75 55 3.0 4.0 0.00 0.08 0.00 69 1011.9
20240613064525 75 105 3.0 4.0 0.00 0.08 0.00 69 1011.8
20240613064414 75 71 2.0 8.0 0.00 0.08 0.00 69 1011.9
20240613064324 75 109 2.0 8.0 0.00 0.08 0.00 69 1011.8
20240613064216 75 109 3.0 8.0 0.00 0.08 0.00 69 1011.7
20240613064105 75 109 3.0 8.0 0.00 0.08 0.00 69 1011.7
20240613063953 75 118 2.0 8.0 0.00 0.08 0.00 69 1011.6
20240613063841 75 156 1.0 8.0 0.00 0.08 0.00 69 1011.8
20240613063750 75 156 2.0 8.0 0.00 0.08 0.00 69 1011.7
20240613063701 75 156 4.0 8.0 0.00 0.08 0.00 69 1011.6
20240613063548 75 116 4.0 8.0 0.00 0.08 0.00 69 1011.7
20240613063459 75 118 3.0 5.0 0.00 0.08 0.00 69 1011.7
20240613063345 75 130 3.0 5.0 0.00 0.08 0.00 69 1011.7
20240613063257 75 150 2.0 4.0 0.00 0.08 0.00 69 1011.6
20240613063220 75 119 2.0 4.0 0.00 0.08 0.00 69 1011.7
20240613063046 75 139 2.0 4.0 0.00 0.08 0.00 69 1011.6
20240613062934 75 139 3.0 4.0 0.00 0.08 0.00 69 1011.6
20240613062848 75 134 3.0 4.0 0.00 0.08 0.00 69 1011.6
20240613062757 75 112 3.0 4.0 0.00 0.08 0.00 69 1011.5
20240613062646 76 107 2.0 3.0 0.00 0.08 0.00 69 1011.6
20240613062557 76 107 2.0 3.0 0.00 0.08 0.00 68 1011.6
20240613062447 76 107 2.0 3.0 0.00 0.08 0.00 68 1011.6
20240613062357 76 107 2.0 3.0 0.00 0.08 0.00 68 1011.6
20240613062245 76 28 1.0 3.0 0.00 0.08 0.00 68 1011.6
20240613062134 76 28 1.0 3.0 0.00 0.08 0.00 68 1011.6
20240613062044 76 28 1.0 3.0 0.00 0.08 0.00 68 1011.6
20240613061954 76 28 0.0 4.0 0.00 0.08 0.00 68 1011.7
20240613061841 76 28 0.0 7.0 0.00 0.08 0.00 68 1011.8
20240613061730 76 28 1.0 7.0 0.00 0.08 0.00 68 1011.7
20240613061652 76 28 0.0 7.0 0.00 0.08 0.00 68 1011.7
20240613061546 76 28 1.0 7.0 0.00 0.08 0.00 68 1011.7
20240613061436 76 28 2.0 7.0 0.00 0.08 0.00 68 1011.7
20240613061346 76 36 1.0 7.0 0.00 0.08 0.00 68 1011.7
20240613061256 76 229 1.0 7.0 0.00 0.08 0.00 68 1011.7
20240613061122 76 229 2.0 7.0 0.00 0.08 0.00 68 1011.7
20240613061033 76 237 2.0 7.0 0.00 0.08 0.00 68 1011.7
20240613060923 76 250 1.0 6.0 0.00 0.08 0.00 68 1011.7
20240613060834 76 250 1.0 6.0 0.00 0.08 0.00 67 1011.7
20240613060745 76 283 1.0 6.0 0.00 0.08 0.00 67 1011.7
20240613060655 76 281 2.0 6.0 0.00 0.08 0.00 67 1011.7
20240613060605 76 233 2.0 6.0 0.00 0.08 0.00 67 1011.7
20240613060516 76 250 2.0 6.0 0.00 0.08 0.00 67 1011.8
20240613060345 76 288 2.0 6.0 0.00 0.08 0.00 67 1011.7
20240613060254 76 290 3.0 6.0 0.00 0.08 0.00 67 1011.6
20240613060156 76 244 3.0 6.0 0.00 0.08 0.00 67 1011.6
20240613060041 76 190 3.0 7.0 0.00 0.08 0.00 67 1011.7
20240613055928 76 253 4.0 6.0 0.00 0.08 0.00 67 1011.7
20240613055836 76 242 4.0 7.0 0.00 0.08 0.00 67 1011.7
20240613055725 76 254 3.0 7.0 0.00 0.08 0.00 67 1011.6
20240613055633 76 231 3.0 7.0 0.00 0.08 0.00 67 1011.6
20240613055521 76 238 3.0 7.0 0.00 0.08 0.00 67 1011.6
20240613055431 76 202 2.0 7.0 0.00 0.08 0.00 67 1011.6
20240613055321 76 291 3.0 7.0 0.00 0.08 0.00 67 1011.7
20240613055232 76 248 4.0 7.0 0.00 0.08 0.00 67 1011.7
20240613055103 76 221 4.0 7.0 0.00 0.08 0.00 67 1011.6
20240613054950 76 242 3.0 8.0 0.00 0.08 0.00 67 1011.6
20240613054858 76 282 3.0 8.0 0.00 0.08 0.00 67 1011.6
20240613054807 76 259 3.0 8.0 0.00 0.08 0.00 67 1011.5
20240613054645 76 259 3.0 8.0 0.00 0.08 0.00 67 1011.5
20240613054533 76 206 3.0 8.0 0.00 0.08 0.00 67 1011.5
20240613054423 76 213 3.0 7.0 0.00 0.08 0.00 67 1011.5
20240613054332 76 229 3.0 7.0 0.00 0.08 0.00 67 1011.4
20240613054242 76 252 3.0 6.0 0.00 0.08 0.00 67 1011.5
20240613054131 76 244 4.0 6.0 0.00 0.08 0.00 67 1011.5
20240613054041 76 236 4.0 6.0 0.00 0.08 0.00 67 1011.5
20240613053952 76 250 3.0 6.0 0.00 0.08 0.00 67 1011.4
20240613053824 76 223 2.0 7.0 0.00 0.08 0.00 67 1011.3
20240613053735 76 241 3.0 8.0 0.00 0.08 0.00 67 1011.3
20240613053646 76 229 3.0 8.0 0.00 0.08 0.00 67 1011.4
20240613053534 76 222 3.0 8.0 0.00 0.08 0.00 67 1011.2
20240613053422 76 144 3.0 8.0 0.00 0.08 0.00 67 1011.4
20240613053333 76 243 3.0 8.0 0.00 0.08 0.00 67 1011.4
20240613053223 76 209 3.0 8.0 0.00 0.08 0.00 67 1011.4
20240613053144 76 267 4.0 8.0 0.00 0.08 0.00 67 1011.4
20240613053031 76 264 4.0 8.0 0.00 0.08 0.00 67 1011.6
20240613052921 76 277 3.0 8.0 0.00 0.08 0.00 67 1011.4
20240613052815 76 254 2.0 8.0 0.00 0.08 0.00 67 1011.4
20240613052726 76 267 3.0 8.0 0.00 0.08 0.00 67 1011.4
20240613052637 76 129 3.0 8.0 0.00 0.08 0.00 67 1011.4
20240613052523 76 252 3.0 7.0 0.00 0.08 0.00 67 1011.4
20240613052415 76 227 3.0 7.0 0.00 0.08 0.00 67 1011.4
20240613052326 76 273 3.0 7.0 0.00 0.08 0.00 67 1011.3
20240613052215 76 242 3.0 7.0 0.00 0.08 0.00 67 1011.4
20240613052126 76 278 3.0 9.0 0.00 0.08 0.00 67 1011.4
20240613052035 76 244 2.0 9.0 0.00 0.08 0.00 67 1011.3
20240613051925 76 234 3.0 9.0 0.00 0.08 0.00 67 1011.3
20240613051834 76 355 2.0 9.0 0.00 0.08 0.00 67 1011.3
20240613051748 76 251 2.0 9.0 0.00 0.08 0.00 67 1011.3
20240613051648 76 82 2.0 9.0 0.00 0.08 0.00 67 1011.3
20240613051515 76 273 3.0 9.0 0.00 0.08 0.00 67 1011.4
20240613051425 76 217 3.0 9.0 0.00 0.08 0.00 67 1011.3
20240613051315 76 263 3.0 9.0 0.00 0.08 0.00 67 1011.3
20240613051226 76 243 2.0 8.0 0.00 0.08 0.00 67 1011.4
20240613051115 76 52 2.0 8.0 0.00 0.08 0.00 67 1011.3
20240613051027 76 275 2.0 8.0 0.00 0.08 0.00 67 1011.4
20240613050916 76 138 2.0 8.0 0.00 0.08 0.00 67 1011.3
20240613050825 76 158 3.0 8.0 0.00 0.08 0.00 67 1011.5
20240613050718 76 206 3.0 8.0 0.00 0.08 0.00 67 1011.4
20240613050627 76 251 3.0 7.0 0.00 0.08 0.00 67 1011.6
20240613050536 76 274 2.0 6.0 0.00 0.08 0.00 67 1011.6
20240613050448 76 220 2.0 6.0 0.00 0.08 0.00 67 1011.5
20240613050333 76 293 2.0 5.0 0.00 0.08 0.00 67 1011.6
20240613050215 76 274 2.0 5.0 0.00 0.08 0.00 68 1011.5
20240613050039 76 297 2.0 5.0 0.00 0.08 0.00 68 1011.5
20240613045950 76 259 2.0 5.0 0.00 0.08 0.00 68 1011.5
20240613045820 76 269 2.0 5.0 0.00 0.08 0.00 68 1011.6
20240613045731 76 235 1.0 5.0 0.00 0.08 0.00 68 1011.6
20240613045645 76 117 2.0 5.0 0.00 0.08 0.00 68 1011.6
20240613045535 76 130 2.0 5.0 0.00 0.08 0.00 68 1011.6
20240613045446 76 258 3.0 5.0 0.00 0.08 0.00 68 1011.6
20240613045334 76 158 2.0 5.0 0.00 0.08 0.00 68 1011.6
20240613045222 76 142 1.0 5.0 0.00 0.08 0.00 68 1011.5
20240613045134 76 227 2.0 5.0 0.00 0.08 0.00 68 1011.5
20240613045043 76 248 2.0 5.0 0.00 0.08 0.00 68 1011.5
20240613044932 76 299 2.0 4.0 0.00 0.08 0.00 68 1011.6
20240613044843 76 113 2.0 4.0 0.00 0.08 0.00 68 1011.6
20240613044754 76 295 2.0 4.0 0.00 0.08 0.00 68 1011.6
20240613044652 76 261 1.0 4.0 0.00 0.08 0.00 68 1011.5
20240613044542 76 140 1.0 4.0 0.00 0.08 0.00 68 1011.5
20240613044432 76 212 2.0 4.0 0.00 0.08 0.00 68 1011.6
20240613044343 76 180 2.0 6.0 0.00 0.08 0.00 68 1011.6
20240613044253 76 113 1.0 6.0 0.00 0.08 0.00 68 1011.5
20240613044119 76 219 2.0 6.0 0.00 0.08 0.00 69 1011.6
20240613044030 76 246 1.0 7.0 0.00 0.08 0.00 68 1011.5
20240613043938 76 311 1.0 7.0 0.00 0.08 0.00 68 1011.6
20240613043827 76 297 2.0 7.0 0.00 0.08 0.00 69 1011.5
20240613043738 76 254 2.0 7.0 0.00 0.08 0.00 69 1011.5
20240613043626 76 284 2.0 7.0 0.00 0.08 0.00 69 1011.6
20240613043533 76 236 3.0 7.0 0.00 0.08 0.00 69 1011.6
20240613043421 75 321 2.0 7.0 0.00 0.08 0.00 69 1011.5
20240613043331 75 247 3.0 7.0 0.00 0.08 0.00 69 1011.5
20240613043216 75 269 3.0 7.0 0.00 0.08 0.00 69 1011.5
20240613043038 75 11 2.0 7.0 0.00 0.08 0.00 70 1011.6
20240613042926 75 44 3.0 7.0 0.00 0.08 0.00 70 1011.5
20240613042815 75 224 2.0 6.0 0.00 0.08 0.00 70 1011.4
20240613042725 75 127 2.0 5.0 0.00 0.08 0.00 70 1011.6
20240613042614 75 255 2.0 5.0 0.00 0.08 0.00 70 1011.5
20240613042502 75 269 1.0 5.0 0.00 0.08 0.00 70 1011.5
20240613042349 75 98 2.0 5.0 0.00 0.08 0.00 70 1011.5
20240613042259 75 261 2.0 5.0 0.00 0.08 0.00 71 1011.4
20240613042148 75 237 2.0 5.0 0.00 0.08 0.00 70 1011.3
20240613042058 75 284 2.0 6.0 0.00 0.08 0.00 71 1011.4
20240613041951 75 254 2.0 6.0 0.00 0.08 0.00 71 1011.3
20240613041839 74 126 1.0 3.0 0.00 0.08 0.00 71 1011.3
20240613041748 74 327 1.0 3.0 0.00 0.08 0.00 71 1011.4
20240613041710 74 266 1.0 3.0 0.00 0.08 0.00 71 1011.4
20240613041600 74 242 1.0 3.0 0.00 0.08 0.00 71 1011.4
20240613041448 74 161 1.0 3.0 0.00 0.08 0.00 71 1011.4
20240613041357 74 175 2.0 3.0 0.00 0.08 0.00 71 1011.4
20240613041223 74 115 2.0 6.0 0.00 0.08 0.00 71 1011.4
20240613041133 74 167 2.0 6.0 0.00 0.08 0.00 71 1011.4
20240613041044 74 297 1.0 6.0 0.00 0.08 0.00 71 1011.4
20240613040953 74 293 1.0 6.0 0.00 0.08 0.00 71 1011.5
20240613040841 74 248 2.0 6.0 0.00 0.08 0.00 71 1011.5
20240613040749 74 5 1.0 6.0 0.00 0.08 0.00 71 1011.4
20240613040641 74 265 2.0 6.0 0.00 0.08 0.00 71 1011.4
20240613040529 74 134 2.0 6.0 0.00 0.08 0.00 71 1011.5
20240613040416 74 238 1.0 4.0 0.00 0.08 0.00 71 1011.4
20240613040328 74 293 1.0 4.0 0.00 0.08 0.00 71 1011.4
20240613040206 74 299 1.0 4.0 0.00 0.08 0.00 71 1011.5
20240613040054 74 266 2.0 4.0 0.00 0.08 0.08 71 1011.4
20240613035954 74 148 2.0 4.0 0.00 0.08 0.08 70 1011.3
20240613035905 74 234 2.0 4.0 0.00 0.08 0.08 70 1011.3
20240613035754 74 49 1.0 4.0 0.00 0.08 0.08 71 1011.3
20240613035642 74 11 1.0 4.0 0.00 0.08 0.08 70 1011.3
20240613035531 74 232 1.0 4.0 0.00 0.08 0.08 70 1011.3
20240613035421 74 259 2.0 4.0 0.00 0.08 0.08 70 1011.4
20240613035316 74 254 1.0 4.0 0.00 0.08 0.08 70 1011.5
20240613035227 74 269 1.0 4.0 0.00 0.08 0.08 70 1011.4
20240613035137 74 299 1.0 4.0 0.00 0.08 0.08 70 1011.4
20240613035046 74 240 1.0 4.0 0.00 0.08 0.08 69 1011.5
20240613034935 74 111 2.0 4.0 0.00 0.08 0.08 69 1011.4
20240613034845 74 246 2.0 4.0 0.00 0.08 0.08 69 1011.4
20240613034733 74 252 1.0 5.0 0.00 0.08 0.08 69 1011.4
20240613034654 74 154 1.0 5.0 0.00 0.08 0.08 69 1011.4
20240613034544 75 259 1.0 5.0 0.00 0.08 0.08 68 1011.5
20240613034454 75 267 1.0 5.0 0.00 0.08 0.08 68 1011.5
20240613034404 75 254 1.0 5.0 0.00 0.08 0.08 68 1011.4
20240613034231 75 204 1.0 5.0 0.00 0.08 0.08 68 1011.4
20240613034146 75 230 1.0 5.0 0.00 0.08 0.08 67 1011.4
20240613034056 75 165 1.0 5.0 0.00 0.08 0.08 67 1011.4
20240613034005 75 203 2.0 6.0 0.00 0.08 0.08 67 1011.5
20240613033855 75 182 2.0 6.0 0.00 0.08 0.08 67 1011.4
20240613033804 75 65 2.0 6.0 0.00 0.08 0.08 67 1011.4
20240613033652 75 173 2.0 6.0 0.00 0.08 0.08 66 1011.4
20240613033521 75 223 2.0 6.0 0.00 0.08 0.08 66 1011.4
20240613033408 75 192 2.0 6.0 0.00 0.08 0.08 66 1011.3
20240613033318 75 163 3.0 6.0 0.00 0.08 0.08 65 1011.3
20240613033219 75 198 3.0 6.0 0.00 0.08 0.08 65 1011.4
20240613033043 74 161 3.0 6.0 0.00 0.08 0.08 66 1011.3
20240613032952 74 175 3.0 6.0 0.00 0.08 0.08 65 1011.3
20240613032823 74 184 2.0 6.0 0.00 0.08 0.08 65 1011.4
20240613032734 74 160 2.0 6.0 0.00 0.08 0.08 65 1011.4
20240613032643 74 147 2.0 6.0 0.00 0.08 0.08 65 1011.3
20240613032531 74 213 2.0 5.0 0.00 0.08 0.08 65 1011.4
20240613032441 73 161 2.0 5.0 0.00 0.08 0.08 65 1011.4
20240613032351 73 151 2.0 5.0 0.00 0.08 0.08 65 1011.3
20240613032259 73 162 2.0 5.0 0.00 0.08 0.08 65 1011.3
20240613032147 73 163 1.0 3.0 0.00 0.08 0.08 66 1011.3
20240613032055 73 153 1.0 3.0 0.00 0.08 0.08 66 1011.2
20240613031945 73 156 1.0 3.0 0.00 0.08 0.08 66 1011.2
20240613031832 73 183 1.0 2.0 0.00 0.08 0.08 66 1011.2
20240613031721 73 205 1.0 2.0 0.00 0.08 0.08 66 1011.3
20240613031642 73 146 1.0 2.0 0.00 0.08 0.08 66 1011.3
20240613031534 73 134 1.0 2.0 0.00 0.08 0.08 66 1011.2
20240613031445 73 134 1.0 2.0 0.00 0.08 0.08 65 1011.2
20240613031355 73 216 1.0 2.0 0.00 0.08 0.08 65 1011.3
20240613031304 73 194 1.0 2.0 0.00 0.08 0.08 66 1011.2
20240613031133 73 177 1.0 2.0 0.00 0.08 0.08 65 1011.2
20240613031023 73 151 1.0 2.0 0.00 0.08 0.08 65 1011.1
20240613030934 73 147 0.0 1.0 0.00 0.08 0.08 65 1011.2
20240613030843 73 148 0.0 1.0 0.00 0.08 0.08 65 1011.2
20240613030754 73 148 1.0 1.0 0.00 0.08 0.08 64 1011.2
20240613030643 73 148 1.0 1.0 0.00 0.08 0.08 65 1011.2
20240613030532 73 138 0.0 1.0 0.00 0.08 0.08 64 1011.2
20240613030442 74 138 0.0 1.0 0.00 0.08 0.08 64 1011.2
20240613030335 74 138 0.0 1.0 0.00 0.08 0.08 64 1011.2
20240613030245 74 138 0.0 1.0 0.00 0.08 0.08 64 1011.2
20240613030205 74 138 0.0 1.0 0.00 0.08 0.08 64 1011.1
20240613030052 74 138 0.0 5.0 0.00 0.08 0.08 65 1011.2
20240613025921 74 138 0.0 5.0 0.00 0.08 0.08 64 1011.2
20240613025833 74 138 0.0 5.0 0.00 0.08 0.08 64 1011.2
20240613025743 74 138 0.0 5.0 0.00 0.08 0.08 63 1011.2
20240613025652 74 138 0.0 5.0 0.00 0.08 0.08 64 1011.1
20240613025541 74 138 0.0 5.0 0.00 0.08 0.08 63 1011.1
20240613025451 74 138 0.0 5.0 0.00 0.08 0.08 63 1011.1
20240613025338 74 138 2.0 5.0 0.00 0.08 0.08 62 1011.1
20240613025249 74 138 3.0 5.0 0.00 0.08 0.08 62 1011.1
20240613025141 74 131 3.0 5.0 0.00 0.08 0.08 63 1011.1
20240613025031 74 133 3.0 4.0 0.00 0.08 0.08 62 1011.0
20240613024920 74 133 3.0 4.0 0.00 0.08 0.08 63 1011.0
20240613024831 74 133 3.0 3.0 0.00 0.08 0.08 63 1011.1
20240613024722 74 133 3.0 3.0 0.00 0.08 0.08 63 1011.1
20240613024644 74 153 3.0 3.0 0.00 0.08 0.08 63 1011.1
20240613024511 74 153 2.0 3.0 0.00 0.08 0.08 63 1011.2
20240613024400 74 153 2.0 3.0 0.00 0.08 0.08 63 1011.1
20240613024248 74 153 2.0 3.0 0.00 0.08 0.08 63 1011.1
20240613024159 74 153 2.0 3.0 0.00 0.08 0.08 63 1011.1
20240613024111 74 153 2.0 3.0 0.00 0.08 0.08 63 1011.1
20240613024024 74 153 2.0 3.0 0.00 0.08 0.08 63 1011.1
20240613023913 74 153 2.0 3.0 0.00 0.08 0.08 63 1011.2
20240613023740 74 169 2.0 4.0 0.00 0.08 0.08 63 1011.1
20240613023651 74 169 2.0 3.0 0.00 0.08 0.08 63 1011.1
20240613023601 74 169 2.0 3.0 0.00 0.08 0.08 63 1011.1
20240613023510 74 169 2.0 4.0 0.00 0.08 0.08 64 1011.2
20240613023358 74 169 2.0 4.0 0.00 0.08 0.08 64 1011.3
20240613023309 74 169 2.0 3.0 0.00 0.08 0.08 64 1011.2
20240613023210 74 169 2.0 3.0 0.00 0.08 0.08 65 1011.3
20240613023034 74 169 1.0 3.0 0.00 0.08 0.08 64 1011.3
20240613022924 74 169 1.0 3.0 0.00 0.08 0.08 64 1011.3
20240613022816 74 169 1.0 3.0 0.00 0.08 0.08 65 1011.3
20240613022729 74 169 1.0 3.0 0.00 0.08 0.08 65 1011.3
20240613022618 74 169 1.0 3.0 0.00 0.08 0.08 64 1011.3
20240613022530 74 157 1.0 2.0 0.00 0.08 0.08 64 1011.3
20240613022440 74 157 1.0 2.0 0.00 0.08 0.08 64 1011.3
20240613022349 74 157 1.0 2.0 0.00 0.08 0.08 65 1011.3
20240613022217 74 182 0.0 2.0 0.00 0.08 0.08 65 1011.3
20240613022127 74 182 0.0 2.0 0.00 0.08 0.08 65 1011.3
20240613022038 75 182 0.0 2.0 0.00 0.08 0.08 66 1011.3
20240613021947 75 182 0.0 2.0 0.00 0.08 0.08 65 1011.3
20240613021821 75 182 0.0 2.0 0.00 0.08 0.08 65 1011.3
20240613021730 75 182 1.0 2.0 0.00 0.08 0.08 65 1011.3
20240613021653 75 182 1.0 2.0 0.00 0.08 0.08 65 1011.3
20240613021543 75 171 1.0 2.0 0.00 0.08 0.08 64 1011.3
20240613021454 75 171 1.0 2.0 0.00 0.08 0.08 64 1011.2
20240613021344 75 171 1.0 2.0 0.00 0.08 0.08 65 1011.3
20240613021231 75 171 0.0 2.0 0.00 0.08 0.08 65 1011.4
20240613021141 75 171 0.0 2.0 0.00 0.08 0.08 65 1011.4
20240613021051 75 171 0.0 2.0 0.00 0.08 0.08 65 1011.1
20240613020958 75 171 0.0 2.0 0.00 0.08 0.08 64 1011.2
20240613020848 75 171 1.0 2.0 0.00 0.08 0.08 64 1011.1
20240613020737 75 149 1.0 2.0 0.00 0.08 0.08 64 1011.1
20240613020647 75 149 0.0 2.0 0.00 0.08 0.08 64 1011.1
20240613020602 75 149 0.0 2.0 0.00 0.08 0.08 66 1011.2
20240613020512 75 175 0.0 0.0 0.00 0.08 0.08 65 1011.1
20240613020400 75 175 0.0 0.0 0.00 0.08 0.08 65 1011.1
20240613020248 75 175 0.0 0.0 0.00 0.08 0.08 65 1011.1
20240613020148 75 175 0.0 0.0 0.00 0.08 0.08 66 1011.1
20240613020015 75 175 0.0 0.0 0.00 0.08 0.08 66 1011.0
20240613015927 75 175 0.0 0.0 0.00 0.08 0.08 66 1011.1
20240613015816 75 175 0.0 0.0 0.00 0.08 0.08 65 1011.0
20240613015728 75 175 0.0 0.0 0.00 0.08 0.08 66 1011.0
20240613015639 75 175 0.0 0.0 0.00 0.08 0.08 65 1011.1
20240613015529 75 175 0.0 0.0 0.00 0.08 0.08 65 1011.1
20240613015441 76 175 0.0 0.0 0.00 0.08 0.08 65 1011.1
20240613015355 76 165 0.0 0.0 0.00 0.08 0.08 63 1011.0
20240613015223 76 165 0.0 0.0 0.00 0.08 0.08 65 1011.0
20240613015134 76 165 0.0 0.0 0.00 0.08 0.08 65 1011.0
20240613015043 76 165 0.0 0.0 0.00 0.08 0.08 64 1011.0
20240613014955 76 165 0.0 1.0 0.00 0.08 0.08 64 1011.0
20240613014906 76 165 0.0 2.0 0.00 0.08 0.08 65 1011.0
20240613014755 76 165 0.0 2.0 0.00 0.08 0.08 64 1011.0
20240613014656 76 165 0.0 2.0 0.00 0.08 0.08 62 1011.0
20240613014545 76 165 0.0 2.0 0.00 0.08 0.08 65 1011.0
20240613014454 76 165 0.0 2.0 0.00 0.08 0.08 63 1011.1
20240613014324 76 165 0.0 2.0 0.00 0.08 0.08 62 1011.1
20240613014219 76 165 0.0 2.0 0.00 0.08 0.08 59 1011.0
20240613014129 76 165 0.0 2.0 0.00 0.08 0.08 59 1011.1
20240613014020 76 165 0.0 2.0 0.00 0.08 0.08 60 1011.1
20240613013932 76 165 0.0 2.0 0.00 0.08 0.08 61 1011.1
20240613013820 76 165 0.0 2.0 0.00 0.08 0.08 60 1011.1
20240613013730 76 165 0.0 2.0 0.00 0.08 0.08 62 1011.1
20240613013639 76 165 0.0 2.0 0.00 0.08 0.08 62 1011.1
20240613013527 76 165 1.0 2.0 0.00 0.08 0.08 60 1011.1
20240613013417 76 167 0.0 3.0 0.00 0.08 0.08 60 1011.2
20240613013328 76 167 0.0 1.0 0.00 0.08 0.08 62 1011.1
20240613013238 76 167 0.0 1.0 0.00 0.08 0.08 61 1011.1
20240613013144 76 167 0.0 1.0 0.00 0.08 0.08 61 1011.2
20240613013032 76 167 0.0 1.0 0.00 0.08 0.08 62 1011.2
20240613012922 76 167 0.0 1.0 0.00 0.08 0.08 62 1011.2
20240613012831 76 167 0.0 1.0 0.00 0.08 0.08 63 1011.3
20240613012741 76 167 0.0 1.0 0.00 0.08 0.08 62 1011.2
20240613012631 76 167 0.0 1.0 0.00 0.08 0.08 62 1011.3
20240613012521 76 284 0.0 1.0 0.00 0.08 0.08 63 1011.3
20240613012431 76 284 0.0 1.0 0.00 0.08 0.08 62 1011.2
20240613012322 76 284 0.0 1.0 0.00 0.08 0.08 62 1011.2
20240613012232 76 284 0.0 1.0 0.00 0.08 0.08 62 1011.3
20240613012146 76 284 0.0 1.0 0.00 0.08 0.08 61 1011.4
20240613012015 76 284 0.0 1.0 0.00 0.08 0.08 62 1011.4
20240613011926 76 284 0.0 1.0 0.00 0.08 0.08 62 1011.3
20240613011835 76 284 0.0 1.0 0.00 0.08 0.08 62 1011.4
20240613011723 76 284 0.0 1.0 0.00 0.08 0.08 61 1011.4
20240613011644 76 284 0.0 1.0 0.00 0.08 0.08 61 1011.4
20240613011532 76 284 0.0 1.0 0.00 0.08 0.08 62 1011.5
20240613011422 76 284 0.0 1.0 0.00 0.08 0.08 61 1011.4
20240613011333 76 284 0.0 2.0 0.00 0.08 0.08 62 1011.5
20240613011243 77 284 0.0 2.0 0.00 0.08 0.08 63 1011.5
20240613011151 77 284 0.0 2.0 0.00 0.08 0.08 62 1011.4
20240613011104 77 284 0.0 2.0 0.00 0.08 0.08 63 1011.5
20240613010954 77 284 0.0 2.0 0.00 0.08 0.08 62 1011.4
20240613010904 77 284 0.0 2.0 0.00 0.08 0.08 59 1011.4
20240613010754 77 284 0.0 2.0 0.00 0.08 0.08 59 1011.5
20240613010703 77 284 1.0 2.0 0.00 0.08 0.08 62 1011.5
20240613010613 77 284 1.0 2.0 0.00 0.08 0.08 61 1011.5
20240613010503 77 284 1.0 2.0 0.00 0.08 0.08 59 1011.5
20240613010352 77 284 1.0 2.0 0.00 0.08 0.08 62 1011.6
20240613010242 78 284 1.0 1.0 0.00 0.08 0.08 62 1011.6
20240613010143 78 284 0.0 1.0 0.00 0.08 0.08 62 1011.6
20240613010028 78 284 0.0 1.0 0.00 0.08 0.08 61 1011.6
20240613005937 78 284 0.0 1.0 0.00 0.08 0.08 63 1011.6
20240613005826 78 284 0.0 1.0 0.00 0.08 0.08 62 1011.7
20240613005740 78 284 0.0 1.0 0.00 0.08 0.08 62 1011.7
20240613005630 79 284 0.0 1.0 0.00 0.08 0.08 61 1011.8
20240613005522 79 284 0.0 0.0 0.00 0.08 0.08 61 1011.7
20240613005433 79 284 0.0 0.0 0.00 0.08 0.08 61 1011.7
20240613005343 79 284 0.0 0.0 0.00 0.08 0.08 60 1011.7
20240613005232 79 284 0.0 0.0 0.00 0.08 0.08 60 1011.8
20240613005141 79 284 0.0 0.0 0.00 0.08 0.08 59 1011.8
20240613005031 79 284 0.0 0.0 0.00 0.08 0.08 60 1011.8
20240613004941 79 284 0.0 0.0 0.00 0.08 0.08 59 1011.8
20240613004850 79 284 0.0 0.0 0.00 0.08 0.08 59 1011.9
20240613004801 80 284 0.0 0.0 0.00 0.08 0.08 60 1011.9
20240613004646 80 284 0.0 0.0 0.00 0.08 0.08 60 1011.9
20240613004515 80 284 0.0 1.0 0.00 0.08 0.08 59 1011.9
20240613004424 80 284 0.0 1.0 0.00 0.08 0.08 60 1011.9
20240613004335 80 284 0.0 1.0 0.00 0.08 0.08 60 1011.9
20240613004246 80 284 0.0 1.0 0.00 0.08 0.08 60 1012.0
20240613004136 80 284 0.0 1.0 0.00 0.08 0.08 59 1012.0
20240613004025 80 284 0.0 1.0 0.00 0.08 0.08 58 1012.0
20240613003915 80 284 0.0 1.0 0.00 0.08 0.08 57 1011.9
20240613003825 81 284 0.0 1.0 0.00 0.08 0.08 56 1011.9
20240613003735 81 284 0.0 1.0 0.00 0.08 0.08 56 1011.9
20240613003624 81 284 0.0 1.0 0.00 0.08 0.08 57 1011.9
20240613003515 81 284 0.0 1.0 0.00 0.08 0.08 57 1012.0
20240613003404 81 284 0.0 1.0 0.00 0.08 0.08 59 1012.0
20240613003251 81 284 0.0 1.0 0.00 0.08 0.08 55 1012.0
20240613003213 81 284 0.0 1.0 0.00 0.08 0.08 55 1011.9
20240613003059 81 284 0.0 1.0 0.00 0.08 0.08 55 1011.9
20240613002947 82 284 0.0 1.0 0.00 0.08 0.08 53 1012.0
20240613002857 82 284 0.0 1.0 0.00 0.08 0.08 53 1012.1
20240613002806 82 284 0.0 1.0 0.00 0.08 0.08 51 1012.0
20240613002634 82 284 0.0 0.0 0.00 0.08 0.08 52 1012.0
20240613002544 82 284 0.0 0.0 0.00 0.08 0.08 52 1012.0
20240613002455 82 284 0.0 0.0 0.00 0.08 0.08 52 1012.0
20240613002343 82 284 0.0 1.0 0.00 0.08 0.08 52 1012.1
20240613002255 82 284 0.0 1.0 0.00 0.08 0.08 52 1012.0
20240613002146 82 284 0.0 1.0 0.00 0.08 0.08 52 1012.0
20240613002036 82 284 0.0 1.0 0.00 0.08 0.08 52 1012.0
20240613001946 82 284 0.0 1.0 0.00 0.08 0.08 52 1012.0
20240613001856 83 284 0.0 1.0 0.00 0.08 0.08 52 1012.0
20240613001744 83 284 0.0 1.0 0.00 0.08 0.08 53 1012.0
20240613001704 83 284 0.0 1.0 0.00 0.08 0.08 53 1012.0
20240613001531 83 284 0.0 1.0 0.00 0.08 0.08 53 1012.0
20240613001419 83 284 0.0 1.0 0.00 0.08 0.08 53 1012.0
20240613001329 83 284 1.0 1.0 0.00 0.08 0.08 52 1012.0
20240613001220 84 284 0.0 1.0 0.00 0.08 0.08 51 1012.0
20240613001130 84 284 0.0 1.0 0.00 0.08 0.08 49 1012.1
20240613001041 84 284 0.0 1.0 0.00 0.08 0.08 49 1012.1
20240613000933 84 284 0.0 1.0 0.00 0.08 0.08 49 1012.0
20240613000822 84 284 0.0 1.0 0.00 0.08 0.08 48 1012.1
20240613000735 84 284 0.0 1.0 0.00 0.08 0.08 47 1012.0
20240613000624 84 284 0.0 1.0 0.00 0.08 0.08 47 1012.1
20240613000534 84 284 0.0 1.0 0.00 0.08 0.08 47 1012.1
20240613000446 85 284 0.0 1.0 0.00 0.08 0.08 47 1012.1
20240613000314 85 284 0.0 1.0 0.00 0.08 0.08 47 1012.1
20240613000225 85 284 0.0 1.0 0.00 0.08 0.08 48 1012.1
20240613000148 85 284 0.0 1.0 0.00 0.08 0.08 48 1012.1
20240613000017 85 284 0.0 2.0 0.00 0.08 0.08 47 1012.0
20240612235931 85 284 0.0 2.0 0.00 0.08 0.08 46 1012.1